Wetterdaten: Donnerstag, 24.08.2017
Datum Zeit Temp. Aussen Temp. o. S. +5cm Feuchte Auss BlattFeu 1 Luftdruck Regen Sonnenschein Regendauer Solar Windben Empfang
24.08.2017 00:00 21,6 C 21,1 C 18,9 C 81 % 0 lf 1012,5 hPa 0,0 l/m 0 min 0 min 5 W/m 12,6 km/h (3 Bft) 95,74 %
24.08.2017 00:02 21,6 C 20,6 C 18,9 C 81 % 0 lf 1012,5 hPa 0,0 l/m 0 min 0 min 5 W/m 20,9 km/h (4 Bft) 95,45 %
24.08.2017 00:04 21,6 C 21,1 C 19,4 C 82 % 0 lf 1012,6 hPa 0,0 l/m 0 min 0 min 5 W/m 14,6 km/h (3 Bft) 91,43 %
24.08.2017 00:08 21,6 C 21,1 C 19,4 C 82 % 0 lf 1012,6 hPa 0,0 l/m 0 min 0 min 5 W/m 18,8 km/h (3 Bft) 93,14 %
24.08.2017 00:10 21,6 C 20,6 C 19,4 C 83 % 0 lf 1012,7 hPa 0,0 l/m 0 min 0 min 5 W/m 16,7 km/h (3 Bft) 93,88 %
24.08.2017 00:12 21,6 C 20,6 C 19,4 C 83 % 0 lf 1012,7 hPa 0,0 l/m 0 min 0 min 5 W/m 14,6 km/h (3 Bft) 94,44 %
24.08.2017 00:14 21,6 C 20,6 C 19,4 C 83 % 0 lf 1012,7 hPa 0,0 l/m 0 min 0 min 5 W/m 16,7 km/h (3 Bft) 93,62 %
24.08.2017 00:16 21,5 C 20,6 C 19,4 C 83 % 0 lf 1012,7 hPa 0,0 l/m 0 min 0 min 5 W/m 14,6 km/h (3 Bft) 94,44 %
24.08.2017 00:18 21,5 C 20,6 C 19,4 C 83 % 0 lf 1012,7 hPa 0,0 l/m 0 min 0 min 5 W/m 12,6 km/h (3 Bft) 94,00 %
24.08.2017 00:20 21,5 C 20,6 C 19,4 C 84 % 0 lf 1012,6 hPa 0,0 l/m 0 min 0 min 5 W/m 14,6 km/h (3 Bft) 93,75 %
24.08.2017 00:22 21,4 C 20,6 C 18,9 C 84 % 0 lf 1012,7 hPa 0,0 l/m 0 min 0 min 5 W/m 10,5 km/h (2 Bft) 93,62 %
24.08.2017 00:24 21,4 C 20,6 C 18,9 C 84 % 0 lf 1012,7 hPa 0,0 l/m 0 min 0 min 5 W/m 14,6 km/h (3 Bft) 97,14 %
24.08.2017 00:26 21,4 C 20,6 C 18,9 C 84 % 0 lf 1012,8 hPa 0,0 l/m 0 min 0 min 5 W/m 14,6 km/h (3 Bft) 94,44 %
24.08.2017 00:28 21,4 C 20,6 C 18,9 C 84 % 0 lf 1012,8 hPa 0,0 l/m 0 min 0 min 5 W/m 10,5 km/h (2 Bft) 94,00 %
24.08.2017 00:30 21,4 C 20,6 C 18,9 C 84 % 0 lf 1012,8 hPa 0,0 l/m 0 min 0 min 5 W/m 12,6 km/h (3 Bft) 95,92 %
24.08.2017 00:32 21,3 C 20,6 C 18,9 C 84 % 0 lf 1012,8 hPa 0,0 l/m 0 min 0 min 5 W/m 12,6 km/h (3 Bft) 97,14 %
24.08.2017 00:34 21,3 C 20,0 C 18,9 C 84 % 0 lf 1012,8 hPa 0,0 l/m 0 min 0 min 5 W/m 14,6 km/h (3 Bft) 93,62 %
24.08.2017 00:36 21,3 C 20,0 C 18,9 C 84 % 0 lf 1012,8 hPa 0,0 l/m 0 min 0 min 5 W/m 14,6 km/h (3 Bft) 96,23 %
24.08.2017 00:38 21,3 C 20,0 C 18,9 C 84 % 0 lf 1012,8 hPa 0,0 l/m 0 min 0 min 5 W/m 20,9 km/h (4 Bft) 94,00 %
24.08.2017 00:40 21,2 C 20,0 C 18,9 C 84 % 0 lf 1012,8 hPa 0,0 l/m 0 min 0 min 5 W/m 10,5 km/h (2 Bft) 93,88 %
24.08.2017 00:42 21,2 C 20,0 C 18,9 C 84 % 0 lf 1012,8 hPa 0,0 l/m 0 min 0 min 5 W/m 16,7 km/h (3 Bft) 97,14 %
24.08.2017 00:44 21,2 C 20,0 C 18,9 C 84 % 0 lf 1012,9 hPa 0,0 l/m 0 min 0 min 5 W/m 12,6 km/h (3 Bft) 94,34 %
24.08.2017 00:46 21,1 C 20,0 C 18,9 C 85 % 0 lf 1012,9 hPa 0,0 l/m 0 min 0 min 5 W/m 14,6 km/h (3 Bft) 96,00 %
24.08.2017 00:48 21,1 C 20,0 C 18,9 C 85 % 0 lf 1012,9 hPa 0,0 l/m 0 min 0 min 5 W/m 14,6 km/h (3 Bft) 95,92 %
24.08.2017 00:50 21,1 C 20,0 C 18,9 C 85 % 0 lf 1013,0 hPa 0,0 l/m 0 min 0 min 5 W/m 6,3 km/h (2 Bft) 97,14 %
24.08.2017 00:52 21,1 C 20,0 C 18,3 C 85 % 0 lf 1012,9 hPa 0,0 l/m 0 min 0 min 5 W/m 16,7 km/h (3 Bft) 94,44 %
24.08.2017 00:54 21,0 C 20,0 C 18,3 C 85 % 0 lf 1012,9 hPa 0,0 l/m 0 min 0 min 5 W/m 8,4 km/h (2 Bft) 98,00 %
24.08.2017 00:56 21,0 C 20,0 C 18,3 C 85 % 0 lf 1012,9 hPa 0,0 l/m 0 min 0 min 5 W/m 18,8 km/h (3 Bft) 95,83 %
24.08.2017 00:58 21,0 C 20,0 C 18,3 C 85 % 0 lf 1013,0 hPa 0,0 l/m 0 min 0 min 5 W/m 12,6 km/h (3 Bft) 97,22 %
24.08.2017 01:00 21,0 C 20,0 C 18,3 C 85 % 0 lf 1013,0 hPa 0,0 l/m 0 min 0 min 5 W/m 14,6 km/h (3 Bft) 98,11 %
24.08.2017 01:02 20,9 C 20,0 C 18,3 C 85 % 0 lf 1013,0 hPa 0,0 l/m 0 min 0 min 5 W/m 16,7 km/h (3 Bft) 98,00 %
24.08.2017 01:04 20,9 C 20,0 C 18,3 C 85 % 0 lf 1013,0 hPa 0,0 l/m 0 min 0 min 5 W/m 8,4 km/h (2 Bft) 97,96 %
24.08.2017 01:06 20,9 C 20,0 C 18,3 C 85 % 0 lf 1013,0 hPa 0,0 l/m 0 min 0 min 5 W/m 14,6 km/h (3 Bft) 97,87 %
24.08.2017 01:08 20,8 C 20,0 C 18,3 C 85 % 0 lf 1013,0 hPa 0,0 l/m 0 min 0 min 5 W/m 14,6 km/h (3 Bft) 97,14 %
24.08.2017 01:10 20,8 C 20,0 C 18,3 C 85 % 0 lf 1013,0 hPa 0,0 l/m 0 min 0 min 5 W/m 10,5 km/h (2 Bft) 98,11 %
24.08.2017 01:12 20,8 C 20,0 C 18,3 C 86 % 0 lf 1013,0 hPa 0,0 l/m 0 min 0 min 5 W/m 14,6 km/h (3 Bft) 100,00 %
24.08.2017 01:14 20,8 C 20,0 C 18,3 C 86 % 0 lf 1013,0 hPa 0,0 l/m 0 min 0 min 5 W/m 10,5 km/h (2 Bft) 96,00 %
24.08.2017 01:16 20,7 C 20,0 C 18,3 C 86 % 0 lf 1013,1 hPa 0,0 l/m 0 min 0 min 4 W/m 10,5 km/h (2 Bft) 97,96 %
24.08.2017 01:18 20,7 C 20,0 C 18,3 C 86 % 0 lf 1013,1 hPa 0,0 l/m 0 min 0 min 0 W/m 6,3 km/h (2 Bft) 97,14 %
24.08.2017 01:20 20,7 C 20,0 C 18,3 C 86 % 0 lf 1013,1 hPa 0,0 l/m 0 min 0 min 0 W/m 10,5 km/h (2 Bft) 100,00 %
24.08.2017 01:22 20,7 C 20,0 C 18,3 C 86 % 0 lf 1013,2 hPa 0,0 l/m 0 min 0 min 0 W/m 14,6 km/h (3 Bft) 98,00 %
24.08.2017 01:24 20,7 C 20,0 C 18,3 C 86 % 0 lf 1013,1 hPa 0,0 l/m 0 min 0 min 0 W/m 18,8 km/h (3 Bft) 97,96 %
24.08.2017 01:26 20,6 C 20,0 C 18,3 C 87 % 0 lf 1013,1 hPa 0,0 l/m 0 min 0 min 0 W/m 18,8 km/h (3 Bft) 97,14 %
24.08.2017 01:28 20,6 C 20,0 C 18,3 C 87 % 0 lf 1013,1 hPa 0,0 l/m 0 min 0 min 0 W/m 10,5 km/h (2 Bft) 96,30 %
24.08.2017 01:30 20,6 C 20,0 C 18,3 C 87 % 0 lf 1013,1 hPa 0,0 l/m 0 min 0 min 0 W/m 12,6 km/h (3 Bft) 94,00 %
24.08.2017 01:32 20,6 C 20,0 C 18,3 C 87 % 0 lf 1013,1 hPa 0,0 l/m 0 min 0 min 0 W/m 10,5 km/h (2 Bft) 97,92 %
24.08.2017 01:34 20,6 C 20,0 C 18,3 C 87 % 0 lf 1013,1 hPa 0,0 l/m 0 min 0 min 0 W/m 10,5 km/h (2 Bft) 95,74 %
24.08.2017 01:36 20,5 C 19,4 C 18,3 C 87 % 0 lf 1013,1 hPa 0,0 l/m 0 min 0 min 0 W/m 12,6 km/h (3 Bft) 97,14 %
24.08.2017 01:38 20,5 C 19,4 C 18,3 C 87 % 0 lf 1013,1 hPa 0,0 l/m 0 min 0 min 2 W/m 16,7 km/h (3 Bft) 98,15 %
24.08.2017 01:40 20,5 C 20,0 C 18,3 C 87 % 0 lf 1013,1 hPa 0,0 l/m 0 min 0 min 1 W/m 14,6 km/h (3 Bft) 98,00 %
24.08.2017 01:42 20,5 C 20,0 C 18,3 C 87 % 0 lf 1013,1 hPa 0,0 l/m 0 min 0 min 5 W/m 12,6 km/h (3 Bft) 95,83 %
24.08.2017 01:44 20,5 C 20,0 C 18,9 C 87 % 0 lf 1013,1 hPa 0,0 l/m 0 min 0 min 5 W/m 18,8 km/h (3 Bft) 97,22 %
24.08.2017 01:46 20,4 C 20,0 C 18,9 C 88 % 0 lf 1013,1 hPa 0,0 l/m 0 min 0 min 5 W/m 16,7 km/h (3 Bft) 98,11 %
24.08.2017 01:48 20,4 C 20,0 C 18,9 C 88 % 0 lf 1013,1 hPa 0,0 l/m 0 min 0 min 5 W/m 4,2 km/h (1 Bft) 98,00 %
24.08.2017 01:50 20,4 C 20,0 C 18,9 C 88 % 0 lf 1013,1 hPa 0,0 l/m 0 min 0 min 5 W/m 10,5 km/h (2 Bft) 97,96 %
24.08.2017 01:52 20,4 C 20,0 C 18,9 C 88 % 0 lf 1013,1 hPa 0,0 l/m 0 min 0 min 5 W/m 10,5 km/h (2 Bft) 97,14 %
24.08.2017 01:54 20,4 C 20,0 C 18,9 C 88 % 0 lf 1013,2 hPa 0,0 l/m 0 min 0 min 5 W/m 12,6 km/h (3 Bft) 98,15 %
24.08.2017 01:56 20,4 C 20,0 C 18,9 C 88 % 0 lf 1013,1 hPa 0,0 l/m 0 min 0 min 5 W/m 14,6 km/h (3 Bft) 97,96 %
24.08.2017 01:58 20,4 C 20,0 C 18,9 C 88 % 0 lf 1013,1 hPa 0,0 l/m 0 min 0 min 5 W/m 8,4 km/h (2 Bft) 97,96 %
24.08.2017 02:00 20,4 C 20,0 C 18,9 C 88 % 0 lf 1013,1 hPa 0,0 l/m 0 min 0 min 0 W/m 10,5 km/h (2 Bft) 100,00 %
24.08.2017 02:02 20,4 C 20,0 C 18,9 C 88 % 0 lf 1013,1 hPa 0,0 l/m 0 min 0 min 0 W/m 14,6 km/h (3 Bft) 100,00 %
24.08.2017 02:04 20,4 C 20,0 C 18,9 C 88 % 0 lf 1013,1 hPa 0,0 l/m 0 min 0 min 0 W/m 12,6 km/h (3 Bft) 100,00 %
24.08.2017 02:06 20,4 C 20,0 C 18,9 C 88 % 0 lf 1013,1 hPa 0,0 l/m 0 min 0 min 0 W/m 10,5 km/h (2 Bft) 100,00 %
24.08.2017 02:08 20,4 C 20,0 C 18,9 C 88 % 0 lf 1013,1 hPa 0,0 l/m 0 min 0 min 0 W/m 10,5 km/h (2 Bft) 100,00 %
24.08.2017 02:10 20,4 C 20,0 C 18,9 C 88 % 0 lf 1013,2 hPa 0,0 l/m 0 min 0 min 0 W/m 10,5 km/h (2 Bft) 100,00 %
24.08.2017 02:12 20,3 C 20,0 C 18,9 C 89 % 0 lf 1013,1 hPa 0,0 l/m 0 min 0 min 0 W/m 8,4 km/h (2 Bft) 100,00 %
24.08.2017 02:14 20,3 C 20,0 C 18,9 C 89 % 0 lf 1013,1 hPa 0,0 l/m 0 min 0 min 0 W/m 6,3 km/h (2 Bft) 98,00 %
24.08.2017 02:16 20,3 C 20,0 C 18,9 C 89 % 0 lf 1013,1 hPa 0,0 l/m 0 min 0 min 0 W/m 8,4 km/h (2 Bft) 97,96 %
24.08.2017 02:18 20,3 C 20,0 C 18,9 C 89 % 0 lf 1013,1 hPa 0,0 l/m 0 min 0 min 0 W/m 12,6 km/h (3 Bft) 100,00 %
24.08.2017 02:20 20,3 C 20,0 C 18,9 C 89 % 0 lf 1013,1 hPa 0,0 l/m 0 min 0 min 0 W/m 10,5 km/h (2 Bft) 100,00 %
24.08.2017 02:22 20,3 C 20,0 C 18,9 C 89 % 0 lf 1013,1 hPa 0,0 l/m 0 min 0 min 0 W/m 12,6 km/h (3 Bft) 97,87 %
24.08.2017 02:24 20,3 C 20,0 C 18,9 C 89 % 0 lf 1013,1 hPa 0,0 l/m 0 min 0 min 0 W/m 10,5 km/h (2 Bft) 96,00 %
24.08.2017 02:26 20,3 C 20,0 C 18,9 C 89 % 0 lf 1013,1 hPa 0,0 l/m 0 min 0 min 0 W/m 8,4 km/h (2 Bft) 97,96 %
24.08.2017 02:28 20,3 C 20,0 C 18,9 C 89 % 0 lf 1013,1 hPa 0,0 l/m 0 min 0 min 0 W/m 8,4 km/h (2 Bft) 97,14 %
24.08.2017 02:30 20,3 C 20,0 C 18,9 C 89 % 0 lf 1013,2 hPa 0,0 l/m 0 min 0 min 0 W/m 10,5 km/h (2 Bft) 96,23 %
24.08.2017 02:32 20,3 C 20,0 C 18,9 C 89 % 0 lf 1013,2 hPa 0,0 l/m 0 min 0 min 0 W/m 20,9 km/h (4 Bft) 96,00 %
24.08.2017 02:34 20,3 C 20,0 C 18,9 C 89 % 0 lf 1013,2 hPa 0,0 l/m 0 min 0 min 4 W/m 14,6 km/h (3 Bft) 95,92 %
24.08.2017 02:36 20,2 C 20,0 C 18,9 C 89 % 0 lf 1013,2 hPa 0,0 l/m 0 min 0 min 5 W/m 16,7 km/h (3 Bft) 100,00 %
24.08.2017 02:38 20,2 C 20,0 C 18,9 C 88 % 0 lf 1013,1 hPa 0,0 l/m 0 min 0 min 5 W/m 12,6 km/h (3 Bft) 96,30 %
24.08.2017 02:40 20,2 C 20,0 C 18,9 C 88 % 0 lf 1013,2 hPa 0,0 l/m 0 min 0 min 5 W/m 23,0 km/h (4 Bft) 96,00 %
24.08.2017 02:42 20,2 C 20,0 C 18,9 C 88 % 0 lf 1013,2 hPa 0,0 l/m 0 min 0 min 5 W/m 23,0 km/h (4 Bft) 97,83 %
24.08.2017 02:44 20,1 C 20,0 C 18,9 C 87 % 0 lf 1013,2 hPa 0,0 l/m 0 min 0 min 5 W/m 20,9 km/h (4 Bft) 93,62 %
24.08.2017 02:46 20,1 C 19,4 C 18,3 C 86 % 0 lf 1013,2 hPa 0,0 l/m 0 min 0 min 5 W/m 23,0 km/h (4 Bft) 95,92 %
24.08.2017 02:48 20,0 C 19,4 C 18,3 C 86 % 0 lf 1013,2 hPa 0,0 l/m 0 min 0 min 5 W/m 23,0 km/h (4 Bft) 94,29 %
24.08.2017 02:50 19,9 C 19,4 C 18,3 C 85 % 0 lf 1013,2 hPa 0,0 l/m 0 min 0 min 5 W/m 20,9 km/h (4 Bft) 96,30 %
24.08.2017 02:52 19,9 C 19,4 C 18,3 C 85 % 0 lf 1013,2 hPa 0,0 l/m 0 min 0 min 5 W/m 23,0 km/h (4 Bft) 91,49 %
24.08.2017 02:54 19,9 C 19,4 C 18,3 C 84 % 0 lf 1013,3 hPa 0,0 l/m 0 min 0 min 5 W/m 18,8 km/h (3 Bft) 95,92 %
24.08.2017 02:56 19,9 C 19,4 C 18,3 C 84 % 0 lf 1013,3 hPa 0,0 l/m 0 min 0 min 5 W/m 23,0 km/h (4 Bft) 93,88 %
24.08.2017 02:58 19,8 C 19,4 C 18,3 C 84 % 0 lf 1013,3 hPa 0,0 l/m 0 min 0 min 5 W/m 18,8 km/h (3 Bft) 97,14 %
24.08.2017 03:00 19,8 C 19,4 C 18,3 C 84 % 0 lf 1013,3 hPa 0,0 l/m 0 min 0 min 5 W/m 23,0 km/h (4 Bft) 98,15 %
24.08.2017 03:02 19,8 C 19,4 C 18,3 C 84 % 0 lf 1013,3 hPa 0,0 l/m 0 min 0 min 5 W/m 14,6 km/h (3 Bft) 90,00 %
24.08.2017 03:04 19,8 C 19,4 C 18,3 C 84 % 0 lf 1013,3 hPa 0,0 l/m 0 min 0 min 5 W/m 25,1 km/h (4 Bft) 93,75 %
24.08.2017 03:06 19,7 C 19,4 C 18,3 C 83 % 0 lf 1013,3 hPa 0,0 l/m 0 min 0 min 5 W/m 23,0 km/h (4 Bft) 95,74 %
24.08.2017 03:08 19,7 C 18,9 C 17,8 C 83 % 0 lf 1013,3 hPa 0,0 l/m 0 min 0 min 5 W/m 12,6 km/h (3 Bft) 93,62 %
24.08.2017 03:10 19,7 C 18,9 C 17,8 C 83 % 0 lf 1013,3 hPa 0,0 l/m 0 min 0 min 5 W/m 16,7 km/h (3 Bft) 93,62 %
24.08.2017 03:12 19,7 C 18,9 C 17,8 C 83 % 0 lf 1013,3 hPa 0,0 l/m 0 min 0 min 5 W/m 23,0 km/h (4 Bft) 93,62 %
24.08.2017 03:14 19,6 C 18,9 C 17,8 C 83 % 0 lf 1013,3 hPa 0,0 l/m 0 min 0 min 5 W/m 14,6 km/h (3 Bft) 95,74 %
24.08.2017 03:16 19,6 C 18,9 C 17,8 C 83 % 0 lf 1013,3 hPa 0,0 l/m 0 min 0 min 5 W/m 12,6 km/h (3 Bft) 91,30 %
24.08.2017 03:18 19,6 C 18,9 C 17,8 C 83 % 0 lf 1013,3 hPa 0,0 l/m 0 min 0 min 5 W/m 18,8 km/h (3 Bft) 97,87 %
24.08.2017 03:20 19,5 C 18,9 C 17,2 C 83 % 0 lf 1013,4 hPa 0,0 l/m 0 min 0 min 5 W/m 16,7 km/h (3 Bft) 97,87 %
24.08.2017 03:22 19,4 C 18,9 C 17,2 C 83 % 0 lf 1013,4 hPa 0,0 l/m 0 min 0 min 5 W/m 18,8 km/h (3 Bft) 95,74 %
24.08.2017 03:24 19,4 C 18,3 C 17,2 C 83 % 0 lf 1013,4 hPa 0,0 l/m 0 min 0 min 5 W/m 12,6 km/h (3 Bft) 91,43 %
24.08.2017 03:26 19,4 C 18,3 C 17,2 C 83 % 0 lf 1013,4 hPa 0,0 l/m 0 min 0 min 5 W/m 14,6 km/h (3 Bft) 92,59 %
24.08.2017 03:28 19,3 C 18,3 C 17,2 C 83 % 0 lf 1013,4 hPa 0,0 l/m 0 min 0 min 5 W/m 14,6 km/h (3 Bft) 95,92 %
24.08.2017 03:30 19,3 C 18,3 C 17,2 C 83 % 0 lf 1013,4 hPa 0,0 l/m 0 min 0 min 5 W/m 23,0 km/h (4 Bft) 97,96 %
24.08.2017 03:32 19,2 C 18,3 C 17,2 C 83 % 0 lf 1013,4 hPa 0,0 l/m 0 min 0 min 5 W/m 12,6 km/h (3 Bft) 100,00 %
24.08.2017 03:34 19,2 C 18,3 C 16,7 C 84 % 0 lf 1013,4 hPa 0,0 l/m 0 min 0 min 5 W/m 10,5 km/h (2 Bft) 94,55 %
24.08.2017 03:36 19,2 C 18,3 C 16,7 C 84 % 0 lf 1013,5 hPa 0,0 l/m 0 min 0 min 2 W/m 14,6 km/h (3 Bft) 96,00 %
24.08.2017 03:38 19,1 C 18,3 C 16,7 C 84 % 0 lf 1013,5 hPa 0,0 l/m 0 min 0 min 0 W/m 20,9 km/h (4 Bft) 94,44 %
24.08.2017 03:40 19,0 C 17,8 C 16,7 C 84 % 0 lf 1013,5 hPa 0,0 l/m 0 min 0 min 0 W/m 18,8 km/h (3 Bft) 91,38 %
24.08.2017 03:42 18,9 C 17,8 C 16,7 C 83 % 0 lf 1013,4 hPa 0,0 l/m 0 min 0 min 0 W/m 29,3 km/h (5 Bft) 88,57 %
24.08.2017 03:44 18,9 C 17,8 C 16,7 C 83 % 0 lf 1013,4 hPa 0,0 l/m 0 min 0 min 3 W/m 14,6 km/h (3 Bft) 96,30 %
24.08.2017 03:46 18,8 C 17,8 C 16,7 C 83 % 0 lf 1013,4 hPa 0,0 l/m 0 min 0 min 0 W/m 23,0 km/h (4 Bft) 96,00 %
24.08.2017 03:48 18,7 C 17,8 C 16,7 C 84 % 0 lf 1013,4 hPa 0,0 l/m 0 min 0 min 0 W/m 20,9 km/h (4 Bft) 95,92 %
24.08.2017 03:50 18,7 C 17,8 C 16,7 C 84 % 0 lf 1013,4 hPa 0,0 l/m 0 min 0 min 0 W/m 23,0 km/h (4 Bft) 94,29 %
24.08.2017 03:52 18,6 C 17,8 C 16,1 C 84 % 0 lf 1013,4 hPa 0,0 l/m 0 min 0 min 0 W/m 12,6 km/h (3 Bft) 96,23 %
24.08.2017 03:54 18,6 C 17,2 C 16,1 C 84 % 0 lf 1013,5 hPa 0,0 l/m 0 min 0 min 0 W/m 10,5 km/h (2 Bft) 92,00 %
24.08.2017 03:56 18,5 C 17,2 C 16,1 C 84 % 0 lf 1013,5 hPa 0,0 l/m 0 min 0 min 0 W/m 23,0 km/h (4 Bft) 95,92 %
24.08.2017 03:58 18,4 C 17,2 C 16,1 C 84 % 0 lf 1013,5 hPa 0,0 l/m 0 min 0 min 0 W/m 14,6 km/h (3 Bft) 94,29 %
24.08.2017 04:00 18,3 C 17,2 C 16,1 C 84 % 0 lf 1013,5 hPa 0,0 l/m 0 min 0 min 0 W/m 16,7 km/h (3 Bft) 92,59 %
24.08.2017 04:05 18,2 C 17,2 C 16,1 C 84 % 0 lf 1013,5 hPa 0,0 l/m 0 min 0 min 0 W/m 18,8 km/h (3 Bft) 100,00 %
24.08.2017 04:06 18,2 C 17,2 C 16,1 C 84 % 0 lf 1013,5 hPa 0,0 l/m 0 min 0 min 3 W/m 12,6 km/h (3 Bft) 95,65 %
24.08.2017 04:08 18,1 C 17,2 C 16,1 C 85 % 0 lf 1013,4 hPa 0,0 l/m 0 min 0 min 0 W/m 16,7 km/h (3 Bft) 97,87 %
24.08.2017 04:10 18,1 C 17,2 C 16,1 C 85 % 0 lf 1013,5 hPa 0,0 l/m 0 min 0 min 0 W/m 14,6 km/h (3 Bft) 100,00 %
24.08.2017 04:12 18,1 C 17,2 C 16,1 C 85 % 0 lf 1013,5 hPa 0,0 l/m 0 min 0 min 0 W/m 10,5 km/h (2 Bft) 93,62 %
24.08.2017 04:14 18,0 C 17,2 C 16,1 C 85 % 0 lf 1013,5 hPa 0,0 l/m 0 min 0 min 0 W/m 16,7 km/h (3 Bft) 97,87 %
24.08.2017 04:16 18,0 C 17,2 C 16,1 C 85 % 0 lf 1013,6 hPa 0,0 l/m 0 min 0 min 0 W/m 18,8 km/h (3 Bft) 97,83 %
24.08.2017 04:18 17,9 C 17,2 C 16,1 C 85 % 0 lf 1013,6 hPa 0,0 l/m 0 min 0 min 0 W/m 14,6 km/h (3 Bft) 95,74 %
24.08.2017 04:20 17,9 C 17,2 C 16,1 C 86 % 0 lf 1013,6 hPa 0,0 l/m 0 min 0 min 0 W/m 14,6 km/h (3 Bft) 97,87 %
24.08.2017 04:22 17,9 C 17,2 C 16,1 C 86 % 0 lf 1013,6 hPa 0,0 l/m 0 min 0 min 1 W/m 14,6 km/h (3 Bft) 97,87 %
24.08.2017 04:24 17,9 C 17,2 C 16,7 C 86 % 0 lf 1013,6 hPa 0,0 l/m 0 min 0 min 5 W/m 12,6 km/h (3 Bft) 97,87 %
24.08.2017 04:26 17,8 C 17,2 C 16,7 C 86 % 0 lf 1013,6 hPa 0,0 l/m 0 min 0 min 5 W/m 12,6 km/h (3 Bft) 97,87 %
24.08.2017 04:28 17,8 C 17,2 C 16,7 C 86 % 0 lf 1013,7 hPa 0,0 l/m 0 min 0 min 0 W/m 10,5 km/h (2 Bft) 97,83 %
24.08.2017 04:30 17,8 C 17,2 C 16,7 C 86 % 0 lf 1013,6 hPa 0,0 l/m 0 min 0 min 0 W/m 14,6 km/h (3 Bft) 95,74 %
24.08.2017 04:32 17,8 C 17,2 C 16,7 C 86 % 0 lf 1013,6 hPa 0,0 l/m 0 min 0 min 0 W/m 12,6 km/h (3 Bft) 97,87 %
24.08.2017 04:34 17,8 C 17,2 C 16,7 C 86 % 0 lf 1013,6 hPa 0,0 l/m 0 min 0 min 0 W/m 18,8 km/h (3 Bft) 97,87 %
24.08.2017 04:36 17,8 C 17,2 C 16,7 C 86 % 0 lf 1013,7 hPa 0,0 l/m 0 min 0 min 0 W/m 12,6 km/h (3 Bft) 97,87 %
24.08.2017 04:38 17,8 C 17,2 C 16,7 C 86 % 0 lf 1013,6 hPa 0,0 l/m 0 min 0 min 0 W/m 14,6 km/h (3 Bft) 97,83 %
24.08.2017 04:40 17,8 C 17,2 C 16,1 C 86 % 0 lf 1013,7 hPa 0,0 l/m 0 min 0 min 1 W/m 18,8 km/h (3 Bft) 100,00 %
24.08.2017 04:42 17,8 C 17,2 C 16,1 C 86 % 0 lf 1013,7 hPa 0,0 l/m 0 min 0 min 1 W/m 14,6 km/h (3 Bft) 100,00 %
24.08.2017 04:44 17,7 C 17,2 C 16,1 C 86 % 0 lf 1013,6 hPa 0,0 l/m 0 min 0 min 0 W/m 16,7 km/h (3 Bft) 100,00 %
24.08.2017 04:46 17,7 C 17,2 C 16,1 C 87 % 0 lf 1013,6 hPa 0,0 l/m 0 min 0 min 0 W/m 18,8 km/h (3 Bft) 97,87 %
24.08.2017 04:48 17,7 C 17,2 C 16,1 C 87 % 0 lf 1013,7 hPa 0,0 l/m 0 min 0 min 2 W/m 12,6 km/h (3 Bft) 95,74 %
24.08.2017 04:50 17,7 C 17,2 C 16,1 C 87 % 0 lf 1013,7 hPa 0,0 l/m 0 min 0 min 5 W/m 20,9 km/h (4 Bft) 100,00 %
24.08.2017 04:52 17,7 C 17,2 C 16,1 C 87 % 0 lf 1013,7 hPa 0,0 l/m 0 min 0 min 5 W/m 18,8 km/h (3 Bft) 100,00 %
24.08.2017 04:54 17,7 C 16,7 C 16,1 C 87 % 0 lf 1013,7 hPa 0,0 l/m 0 min 0 min 5 W/m 12,6 km/h (3 Bft) 100,00 %
24.08.2017 04:56 17,6 C 16,7 C 15,6 C 87 % 0 lf 1013,7 hPa 0,0 l/m 0 min 0 min 5 W/m 14,6 km/h (3 Bft) 95,74 %
24.08.2017 04:58 17,6 C 16,7 C 15,6 C 87 % 0 lf 1013,7 hPa 0,0 l/m 0 min 0 min 5 W/m 18,8 km/h (3 Bft) 100,00 %
24.08.2017 05:00 17,6 C 16,7 C 15,6 C 87 % 0 lf 1013,7 hPa 0,0 l/m 0 min 0 min 5 W/m 14,6 km/h (3 Bft) 100,00 %
24.08.2017 05:02 17,5 C 16,7 C 15,6 C 87 % 0 lf 1013,7 hPa 0,0 l/m 0 min 0 min 5 W/m 12,6 km/h (3 Bft) 100,00 %
24.08.2017 05:04 17,5 C 16,7 C 15,6 C 87 % 0 lf 1013,7 hPa 0,0 l/m 0 min 0 min 5 W/m 10,5 km/h (2 Bft) 95,74 %
24.08.2017 05:06 17,4 C 16,7 C 15,6 C 87 % 0 lf 1013,8 hPa 0,0 l/m 0 min 0 min 5 W/m 10,5 km/h (2 Bft) 95,74 %
24.08.2017 05:08 17,4 C 16,7 C 15,6 C 87 % 0 lf 1013,7 hPa 0,0 l/m 0 min 0 min 5 W/m 10,5 km/h (2 Bft) 97,87 %
24.08.2017 05:10 17,4 C 16,7 C 15,0 C 87 % 0 lf 1013,7 hPa 0,0 l/m 0 min 0 min 0 W/m 12,6 km/h (3 Bft) 97,87 %
24.08.2017 05:12 17,4 C 16,1 C 15,0 C 87 % 0 lf 1013,7 hPa 0,0 l/m 0 min 0 min 0 W/m 12,6 km/h (3 Bft) 100,00 %
24.08.2017 05:14 17,3 C 16,1 C 15,0 C 87 % 0 lf 1013,7 hPa 0,0 l/m 0 min 0 min 0 W/m 12,6 km/h (3 Bft) 100,00 %
24.08.2017 05:16 17,3 C 16,1 C 15,0 C 87 % 0 lf 1013,7 hPa 0,0 l/m 0 min 0 min 0 W/m 14,6 km/h (3 Bft) 97,87 %
24.08.2017 05:18 17,3 C 16,1 C 15,0 C 87 % 0 lf 1013,7 hPa 0,0 l/m 0 min 0 min 0 W/m 16,7 km/h (3 Bft) 97,87 %
24.08.2017 05:20 17,2 C 16,1 C 15,0 C 87 % 0 lf 1013,8 hPa 0,0 l/m 0 min 0 min 0 W/m 16,7 km/h (3 Bft) 97,87 %
24.08.2017 05:22 17,2 C 16,1 C 15,0 C 87 % 0 lf 1013,8 hPa 0,0 l/m 0 min 0 min 0 W/m 14,6 km/h (3 Bft) 95,74 %
24.08.2017 05:24 17,1 C 16,1 C 15,0 C 88 % 0 lf 1013,8 hPa 0,0 l/m 0 min 0 min 0 W/m 12,6 km/h (3 Bft) 97,87 %
24.08.2017 05:26 17,1 C 16,1 C 15,0 C 88 % 0 lf 1013,8 hPa 0,0 l/m 0 min 0 min 0 W/m 14,6 km/h (3 Bft) 97,83 %
24.08.2017 05:28 17,1 C 16,1 C 15,0 C 88 % 0 lf 1013,9 hPa 0,0 l/m 0 min 0 min 0 W/m 18,8 km/h (3 Bft) 93,62 %
24.08.2017 05:30 17,1 C 16,1 C 15,0 C 88 % 0 lf 1013,8 hPa 0,0 l/m 0 min 0 min 0 W/m 14,6 km/h (3 Bft) 93,62 %
24.08.2017 05:32 17,0 C 16,1 C 15,0 C 88 % 0 lf 1013,9 hPa 0,0 l/m 0 min 0 min 0 W/m 8,4 km/h (2 Bft) 93,62 %
24.08.2017 05:34 17,0 C 16,1 C 15,0 C 88 % 0 lf 1013,9 hPa 0,0 l/m 0 min 0 min 0 W/m 16,7 km/h (3 Bft) 93,62 %
24.08.2017 05:36 17,0 C 16,1 C 15,0 C 88 % 0 lf 1014,0 hPa 0,0 l/m 0 min 0 min 0 W/m 12,6 km/h (3 Bft) 89,36 %
24.08.2017 05:38 16,9 C 16,1 C 15,0 C 88 % 0 lf 1013,9 hPa 0,0 l/m 0 min 0 min 0 W/m 10,5 km/h (2 Bft) 91,30 %
24.08.2017 05:40 16,9 C 16,1 C 15,0 C 88 % 0 lf 1013,9 hPa 0,0 l/m 0 min 0 min 0 W/m 14,6 km/h (3 Bft) 91,49 %
24.08.2017 05:42 16,9 C 16,1 C 15,0 C 88 % 0 lf 1013,9 hPa 0,0 l/m 0 min 0 min 0 W/m 16,7 km/h (3 Bft) 93,62 %
24.08.2017 05:44 16,8 C 16,1 C 15,0 C 88 % 0 lf 1014,0 hPa 0,0 l/m 0 min 0 min 0 W/m 18,8 km/h (3 Bft) 93,62 %
24.08.2017 05:46 16,8 C 16,1 C 15,0 C 88 % 0 lf 1013,9 hPa 0,0 l/m 0 min 0 min 0 W/m 12,6 km/h (3 Bft) 93,62 %
24.08.2017 05:48 16,8 C 16,1 C 15,0 C 88 % 0 lf 1014,0 hPa 0,0 l/m 0 min 0 min 0 W/m 12,6 km/h (3 Bft) 91,49 %
24.08.2017 05:50 16,8 C 15,6 C 15,0 C 88 % 0 lf 1014,0 hPa 0,0 l/m 0 min 0 min 0 W/m 14,6 km/h (3 Bft) 93,48 %
24.08.2017 05:52 16,7 C 15,6 C 15,0 C 89 % 0 lf 1014,0 hPa 0,0 l/m 0 min 0 min 0 W/m 20,9 km/h (4 Bft) 93,62 %
24.08.2017 05:54 16,7 C 15,6 C 15,0 C 89 % 0 lf 1014,0 hPa 0,0 l/m 0 min 0 min 0 W/m 14,6 km/h (3 Bft) 91,49 %
24.08.2017 05:56 16,7 C 16,1 C 15,0 C 89 % 0 lf 1014,0 hPa 0,0 l/m 0 min 0 min 0 W/m 12,6 km/h (3 Bft) 93,62 %
24.08.2017 05:58 16,7 C 16,1 C 15,0 C 89 % 0 lf 1014,0 hPa 0,0 l/m 0 min 0 min 0 W/m 14,6 km/h (3 Bft) 93,62 %
24.08.2017 06:00 16,7 C 16,1 C 15,0 C 89 % 0 lf 1013,9 hPa 0,0 l/m 0 min 0 min 0 W/m 14,6 km/h (3 Bft) 97,87 %
24.08.2017 06:02 16,6 C 15,6 C 15,0 C 89 % 0 lf 1014,1 hPa 0,0 l/m 0 min 0 min 0 W/m 12,6 km/h (3 Bft) 93,48 %
24.08.2017 06:04 16,6 C 16,1 C 15,0 C 89 % 0 lf 1014,1 hPa 0,0 l/m 0 min 0 min 0 W/m 14,6 km/h (3 Bft) 95,74 %
24.08.2017 06:08 16,6 C 16,1 C 15,0 C 89 % 0 lf 1014,2 hPa 0,0 l/m 0 min 0 min 0 W/m 10,5 km/h (2 Bft) 95,83 %
24.08.2017 06:10 16,6 C 15,6 C 15,0 C 89 % 0 lf 1014,2 hPa 0,0 l/m 0 min 0 min 0 W/m 12,6 km/h (3 Bft) 87,23 %
24.08.2017 06:12 16,6 C 15,6 C 15,0 C 89 % 0 lf 1014,2 hPa 0,0 l/m 0 min 0 min 0 W/m 18,8 km/h (3 Bft) 93,48 %
24.08.2017 06:14 16,5 C 15,6 C 15,0 C 89 % 0 lf 1014,2 hPa 0,0 l/m 0 min 0 min 0 W/m 18,8 km/h (3 Bft) 95,74 %
24.08.2017 06:16 16,5 C 15,6 C 15,0 C 90 % 0 lf 1014,2 hPa 0,0 l/m 0 min 0 min 0 W/m 14,6 km/h (3 Bft) 97,87 %
24.08.2017 06:18 16,4 C 15,6 C 15,0 C 90 % 0 lf 1014,2 hPa 0,0 l/m 0 min 0 min 0 W/m 16,7 km/h (3 Bft) 97,87 %
24.08.2017 06:20 16,4 C 15,6 C 15,0 C 90 % 0 lf 1014,2 hPa 0,0 l/m 0 min 0 min 292 W/m 14,6 km/h (3 Bft) 97,87 %
24.08.2017 06:22 16,4 C 15,6 C 15,0 C 90 % 0 lf 1014,2 hPa 0,0 l/m 0 min 0 min 281 W/m 16,7 km/h (3 Bft) 97,87 %
24.08.2017 06:24 16,4 C 15,6 C 15,0 C 90 % 0 lf 1014,3 hPa 0,0 l/m 0 min 0 min 296 W/m 18,8 km/h (3 Bft) 100,00 %
24.08.2017 06:26 16,4 C 15,6 C 15,0 C 90 % 0 lf 1014,3 hPa 0,0 l/m 0 min 0 min 322 W/m 12,6 km/h (3 Bft) 100,00 %
24.08.2017 06:28 16,4 C 15,6 C 15,0 C 90 % 0 lf 1014,4 hPa 0,0 l/m 0 min 0 min 336 W/m 16,7 km/h (3 Bft) 100,00 %
24.08.2017 06:30 16,3 C 15,6 C 15,0 C 90 % 0 lf 1014,4 hPa 0,0 l/m 0 min 0 min 352 W/m 14,6 km/h (3 Bft) 97,87 %
24.08.2017 06:32 16,3 C 15,6 C 15,0 C 90 % 0 lf 1014,4 hPa 0,0 l/m 0 min 0 min 363 W/m 16,7 km/h (3 Bft) 97,87 %
24.08.2017 06:34 16,3 C 15,6 C 15,0 C 90 % 0 lf 1014,4 hPa 0,0 l/m 0 min 0 min 390 W/m 12,6 km/h (3 Bft) 97,87 %
24.08.2017 06:36 16,3 C 15,6 C 15,0 C 90 % 0 lf 1014,4 hPa 0,0 l/m 0 min 0 min 394 W/m 10,5 km/h (2 Bft) 100,00 %
24.08.2017 06:38 16,3 C 15,6 C 15,0 C 90 % 0 lf 1014,4 hPa 0,0 l/m 0 min 0 min 381 W/m 14,6 km/h (3 Bft) 95,74 %
24.08.2017 06:40 16,3 C 15,6 C 15,0 C 90 % 0 lf 1014,4 hPa 0,0 l/m 0 min 0 min 405 W/m 14,6 km/h (3 Bft) 100,00 %
24.08.2017 06:42 16,3 C 15,6 C 15,0 C 90 % 0 lf 1014,4 hPa 0,0 l/m 0 min 0 min 5 W/m 12,6 km/h (3 Bft) 100,00 %
24.08.2017 06:44 16,3 C 15,6 C 15,0 C 90 % 0 lf 1014,4 hPa 0,0 l/m 0 min 0 min 10 W/m 8,4 km/h (2 Bft) 100,00 %
24.08.2017 06:46 16,2 C 15,6 C 14,4 C 90 % 0 lf 1014,4 hPa 0,0 l/m 0 min 0 min 16 W/m 14,6 km/h (3 Bft) 93,48 %
24.08.2017 06:48 16,2 C 15,6 C 14,4 C 90 % 0 lf 1014,4 hPa 0,0 l/m 2 min 0 min 21 W/m 10,5 km/h (2 Bft) 100,00 %
24.08.2017 06:50 16,2 C 15,6 C 14,4 C 90 % 0 lf 1014,4 hPa 0,0 l/m 2 min 0 min 27 W/m 10,5 km/h (2 Bft) 97,87 %
24.08.2017 06:52 16,2 C 15,6 C 14,4 C 90 % 0 lf 1014,4 hPa 0,0 l/m 2 min 0 min 32 W/m 12,6 km/h (3 Bft) 100,00 %
24.08.2017 06:54 16,2 C 15,6 C 15,0 C 90 % 0 lf 1014,5 hPa 0,0 l/m 2 min 0 min 38 W/m 25,1 km/h (4 Bft) 100,00 %
24.08.2017 06:56 16,2 C 15,6 C 15,0 C 90 % 0 lf 1014,5 hPa 0,0 l/m 2 min 0 min 43 W/m 12,6 km/h (3 Bft) 97,87 %
24.08.2017 06:58 16,2 C 15,6 C 15,0 C 90 % 0 lf 1014,5 hPa 0,0 l/m 2 min 0 min 49 W/m 12,6 km/h (3 Bft) 100,00 %
24.08.2017 07:00 16,2 C 15,6 C 15,0 C 90 % 0 lf 1014,7 hPa 0,0 l/m 2 min 0 min 54 W/m 18,8 km/h (3 Bft) 100,00 %
24.08.2017 07:02 16,2 C 16,1 C 15,0 C 90 % 0 lf 1014,7 hPa 0,0 l/m 0 min 0 min 17 W/m 16,7 km/h (3 Bft) 97,87 %
24.08.2017 07:04 16,2 C 16,1 C 15,0 C 90 % 0 lf 1014,7 hPa 0,0 l/m 0 min 0 min 18 W/m 16,7 km/h (3 Bft) 97,87 %
24.08.2017 07:06 16,2 C 15,6 C 15,0 C 90 % 0 lf 1014,7 hPa 0,0 l/m 0 min 0 min 21 W/m 18,8 km/h (3 Bft) 97,87 %
24.08.2017 07:08 16,2 C 15,6 C 15,0 C 90 % 0 lf 1014,7 hPa 0,0 l/m 0 min 0 min 24 W/m 18,8 km/h (3 Bft) 97,87 %
24.08.2017 07:10 16,1 C 15,6 C 15,0 C 90 % 0 lf 1014,7 hPa 0,0 l/m 0 min 0 min 25 W/m 16,7 km/h (3 Bft) 100,00 %
24.08.2017 07:12 16,1 C 15,6 C 15,0 C 90 % 0 lf 1014,6 hPa 0,0 l/m 0 min 0 min 27 W/m 16,7 km/h (3 Bft) 100,00 %
24.08.2017 07:14 16,1 C 16,1 C 15,0 C 90 % 0 lf 1014,6 hPa 0,0 l/m 0 min 0 min 29 W/m 14,6 km/h (3 Bft) 97,87 %
24.08.2017 07:16 16,1 C 16,1 C 15,0 C 90 % 0 lf 1014,7 hPa 0,0 l/m 0 min 0 min 32 W/m 20,9 km/h (4 Bft) 95,74 %
24.08.2017 07:18 16,1 C 16,1 C 15,0 C 90 % 0 lf 1014,7 hPa 0,0 l/m 0 min 0 min 33 W/m 18,8 km/h (3 Bft) 97,87 %
24.08.2017 07:20 16,1 C 16,1 C 15,0 C 90 % 0 lf 1014,7 hPa 0,0 l/m 0 min 0 min 36 W/m 14,6 km/h (3 Bft) 87,23 %
24.08.2017 07:22 16,1 C 16,1 C 15,0 C 90 % 0 lf 1014,7 hPa 0,0 l/m 0 min 0 min 39 W/m 16,7 km/h (3 Bft) 95,65 %
24.08.2017 07:24 16,1 C 16,1 C 15,0 C 91 % 0 lf 1014,7 hPa 0,0 l/m 0 min 0 min 42 W/m 12,6 km/h (3 Bft) 95,74 %
24.08.2017 07:26 16,1 C 16,1 C 15,0 C 91 % 0 lf 1014,8 hPa 0,0 l/m 0 min 0 min 46 W/m 23,0 km/h (4 Bft) 95,74 %
24.08.2017 07:28 16,1 C 16,1 C 15,0 C 91 % 0 lf 1014,6 hPa 0,0 l/m 0 min 0 min 51 W/m 12,6 km/h (3 Bft) 95,74 %
24.08.2017 07:30 16,1 C 16,1 C 15,0 C 91 % 0 lf 1014,7 hPa 0,0 l/m 0 min 0 min 57 W/m 14,6 km/h (3 Bft) 95,74 %
24.08.2017 07:32 16,1 C 16,1 C 15,0 C 91 % 0 lf 1014,7 hPa 0,0 l/m 0 min 0 min 62 W/m 14,6 km/h (3 Bft) 95,74 %
24.08.2017 07:34 16,1 C 16,1 C 15,0 C 91 % 0 lf 1014,7 hPa 0,0 l/m 0 min 0 min 68 W/m 14,6 km/h (3 Bft) 95,65 %
24.08.2017 07:36 16,1 C 16,1 C 15,6 C 91 % 0 lf 1014,7 hPa 0,0 l/m 0 min 0 min 70 W/m 12,6 km/h (3 Bft) 95,74 %
24.08.2017 07:38 16,1 C 16,1 C 15,6 C 91 % 0 lf 1014,7 hPa 0,0 l/m 0 min 0 min 70 W/m 16,7 km/h (3 Bft) 93,62 %
24.08.2017 07:40 16,1 C 16,1 C 15,6 C 91 % 0 lf 1014,7 hPa 0,0 l/m 0 min 0 min 69 W/m 25,1 km/h (4 Bft) 93,62 %
24.08.2017 07:42 16,1 C 16,1 C 15,6 C 91 % 0 lf 1014,7 hPa 0,0 l/m 0 min 0 min 66 W/m 16,7 km/h (3 Bft) 95,74 %
24.08.2017 07:44 16,1 C 16,1 C 15,6 C 91 % 0 lf 1014,8 hPa 0,0 l/m 0 min 0 min 63 W/m 16,7 km/h (3 Bft) 93,62 %
24.08.2017 07:46 16,1 C 16,7 C 15,6 C 91 % 0 lf 1014,8 hPa 0,0 l/m 0 min 0 min 62 W/m 8,4 km/h (2 Bft) 95,65 %
24.08.2017 07:48 16,2 C 16,7 C 15,6 C 91 % 0 lf 1014,8 hPa 0,0 l/m 0 min 0 min 63 W/m 14,6 km/h (3 Bft) 93,62 %
24.08.2017 07:50 16,2 C 16,1 C 15,6 C 91 % 0 lf 1014,8 hPa 0,0 l/m 0 min 0 min 66 W/m 25,1 km/h (4 Bft) 95,74 %
24.08.2017 07:52 16,2 C 16,7 C 15,6 C 91 % 0 lf 1014,8 hPa 0,0 l/m 0 min 0 min 68 W/m 14,6 km/h (3 Bft) 95,74 %
24.08.2017 07:54 16,2 C 16,7 C 15,6 C 91 % 0 lf 1014,8 hPa 0,0 l/m 0 min 0 min 73 W/m 14,6 km/h (3 Bft) 97,87 %
24.08.2017 07:56 16,2 C 16,7 C 15,6 C 91 % 0 lf 1014,9 hPa 0,0 l/m 0 min 0 min 75 W/m 16,7 km/h (3 Bft) 91,49 %
24.08.2017 07:58 16,2 C 16,1 C 15,6 C 91 % 0 lf 1014,9 hPa 0,0 l/m 0 min 0 min 81 W/m 16,7 km/h (3 Bft) 95,65 %
24.08.2017 08:00 16,2 C 16,7 C 15,6 C 91 % 0 lf 1014,9 hPa 0,0 l/m 0 min 0 min 87 W/m 18,8 km/h (3 Bft) 93,62 %
24.08.2017 08:02 16,2 C 16,7 C 15,6 C 91 % 0 lf 1014,9 hPa 0,0 l/m 0 min 0 min 93 W/m 18,8 km/h (3 Bft) 97,87 %
24.08.2017 08:04 16,2 C 16,7 C 16,1 C 91 % 0 lf 1015,0 hPa 0,0 l/m 0 min 0 min 98 W/m 16,7 km/h (3 Bft) 97,87 %
24.08.2017 08:06 16,2 C 16,7 C 16,1 C 91 % 0 lf 1014,9 hPa 0,0 l/m 0 min 0 min 102 W/m 12,6 km/h (3 Bft) 97,87 %
24.08.2017 08:08 16,3 C 16,7 C 16,1 C 91 % 0 lf 1014,9 hPa 0,0 l/m 0 min 0 min 106 W/m 18,8 km/h (3 Bft) 97,83 %
24.08.2017 08:10 16,3 C 16,7 C 16,1 C 91 % 0 lf 1014,9 hPa 0,0 l/m 0 min 0 min 110 W/m 16,7 km/h (3 Bft) 93,62 %
24.08.2017 08:12 16,3 C 16,7 C 16,1 C 91 % 0 lf 1014,9 hPa 0,0 l/m 0 min 0 min 114 W/m 20,9 km/h (4 Bft) 95,74 %
24.08.2017 08:14 16,3 C 17,2 C 16,1 C 91 % 0 lf 1014,9 hPa 0,0 l/m 0 min 0 min 118 W/m 14,6 km/h (3 Bft) 95,74 %
24.08.2017 08:16 16,3 C 17,2 C 16,1 C 91 % 0 lf 1014,9 hPa 0,0 l/m 2 min 0 min 124 W/m 14,6 km/h (3 Bft) 97,87 %
24.08.2017 08:18 16,4 C 17,2 C 16,7 C 91 % 0 lf 1015,0 hPa 0,0 l/m 2 min 0 min 135 W/m 16,7 km/h (3 Bft) 97,87 %
24.08.2017 08:20 16,4 C 17,2 C 16,7 C 91 % 0 lf 1015,0 hPa 0,0 l/m 2 min 0 min 140 W/m 16,7 km/h (3 Bft) 95,65 %
24.08.2017 08:22 16,4 C 17,8 C 16,7 C 91 % 0 lf 1015,0 hPa 0,0 l/m 2 min 0 min 138 W/m 16,7 km/h (3 Bft) 93,62 %
24.08.2017 08:24 16,4 C 17,2 C 16,7 C 91 % 0 lf 1015,0 hPa 0,0 l/m 2 min 0 min 138 W/m 18,8 km/h (3 Bft) 97,87 %
24.08.2017 08:26 16,4 C 17,2 C 16,7 C 91 % 0 lf 1015,0 hPa 0,0 l/m 2 min 0 min 139 W/m 18,8 km/h (3 Bft) 95,74 %
24.08.2017 08:28 16,5 C 17,2 C 16,7 C 91 % 0 lf 1015,0 hPa 0,0 l/m 2 min 0 min 141 W/m 18,8 km/h (3 Bft) 89,36 %
24.08.2017 08:30 16,5 C 17,2 C 16,7 C 90 % 0 lf 1015,1 hPa 0,0 l/m 0 min 0 min 135 W/m 20,9 km/h (4 Bft) 87,23 %
24.08.2017 08:32 16,6 C 17,2 C 16,7 C 90 % 0 lf 1015,0 hPa 0,0 l/m 0 min 0 min 128 W/m 20,9 km/h (4 Bft) 93,48 %
24.08.2017 08:34 16,6 C 17,2 C 16,7 C 90 % 0 lf 1015,1 hPa 0,0 l/m 0 min 0 min 135 W/m 16,7 km/h (3 Bft) 93,62 %
24.08.2017 08:36 16,6 C 17,8 C 16,7 C 90 % 0 lf 1015,1 hPa 0,0 l/m 0 min 0 min 139 W/m 12,6 km/h (3 Bft) 93,62 %
24.08.2017 08:38 16,6 C 17,8 C 16,7 C 90 % 0 lf 1015,1 hPa 0,0 l/m 0 min 0 min 136 W/m 10,5 km/h (2 Bft) 95,74 %
24.08.2017 08:40 16,7 C 17,8 C 16,7 C 90 % 0 lf 1015,1 hPa 0,0 l/m 0 min 0 min 145 W/m 16,7 km/h (3 Bft) 93,88 %
24.08.2017 08:42 16,7 C 17,8 C 16,7 C 90 % 0 lf 1015,1 hPa 0,0 l/m 0 min 0 min 146 W/m 16,7 km/h (3 Bft) 95,74 %
24.08.2017 08:44 16,7 C 18,3 C 16,7 C 90 % 0 lf 1015,1 hPa 0,0 l/m 0 min 0 min 141 W/m 12,6 km/h (3 Bft) 95,65 %
24.08.2017 08:46 16,7 C 17,8 C 16,7 C 90 % 0 lf 1015,1 hPa 0,0 l/m 0 min 0 min 132 W/m 16,7 km/h (3 Bft) 91,49 %
24.08.2017 08:48 16,7 C 17,8 C 16,7 C 90 % 0 lf 1015,1 hPa 0,0 l/m 0 min 0 min 132 W/m 20,9 km/h (4 Bft) 93,62 %
24.08.2017 08:50 16,7 C 17,8 C 16,7 C 90 % 0 lf 1015,1 hPa 0,0 l/m 0 min 0 min 155 W/m 18,8 km/h (3 Bft) 95,74 %
24.08.2017 08:52 16,8 C 18,3 C 16,7 C 90 % 0 lf 1015,1 hPa 0,0 l/m 2 min 0 min 195 W/m 18,8 km/h (3 Bft) 95,74 %
24.08.2017 08:54 16,8 C 18,3 C 17,2 C 90 % 0 lf 1015,1 hPa 0,0 l/m 2 min 0 min 177 W/m 14,6 km/h (3 Bft) 95,74 %
24.08.2017 08:56 16,8 C 18,3 C 17,2 C 90 % 0 lf 1015,1 hPa 0,0 l/m 2 min 0 min 192 W/m 20,9 km/h (4 Bft) 95,65 %
24.08.2017 08:58 16,8 C 18,3 C 17,2 C 90 % 0 lf 1015,1 hPa 0,0 l/m 0 min 0 min 161 W/m 18,8 km/h (3 Bft) 93,62 %
24.08.2017 09:00 16,9 C 18,3 C 17,2 C 90 % 0 lf 1015,1 hPa 0,0 l/m 0 min 0 min 160 W/m 12,6 km/h (3 Bft) 94,29 %
24.08.2017 09:02 16,9 C 18,3 C 17,2 C 90 % 0 lf 1015,1 hPa 0,0 l/m 0 min 0 min 163 W/m 16,7 km/h (3 Bft) 93,22 %
24.08.2017 09:04 16,9 C 18,9 C 17,2 C 90 % 0 lf 1015,1 hPa 0,0 l/m 0 min 0 min 153 W/m 14,6 km/h (3 Bft) 100,00 %
24.08.2017 09:06 17,0 C 18,9 C 17,8 C 90 % 0 lf 1015,2 hPa 0,0 l/m 0 min 0 min 169 W/m 14,6 km/h (3 Bft) 94,92 %
24.08.2017 09:08 17,1 C 18,3 C 17,8 C 90 % 0 lf 1015,2 hPa 0,0 l/m 0 min 0 min 158 W/m 14,6 km/h (3 Bft) 97,83 %
24.08.2017 09:10 17,1 C 18,3 C 17,8 C 90 % 0 lf 1015,2 hPa 0,0 l/m 0 min 0 min 159 W/m 20,9 km/h (4 Bft) 95,74 %
24.08.2017 09:12 17,1 C 18,3 C 17,8 C 90 % 0 lf 1015,2 hPa 0,0 l/m 0 min 0 min 168 W/m 14,6 km/h (3 Bft) 95,74 %
24.08.2017 09:14 17,1 C 18,3 C 17,8 C 89 % 0 lf 1015,2 hPa 0,0 l/m 0 min 0 min 191 W/m 16,7 km/h (3 Bft) 95,74 %
24.08.2017 09:16 17,1 C 18,3 C 17,8 C 89 % 0 lf 1015,2 hPa 0,0 l/m 0 min 0 min 186 W/m 16,7 km/h (3 Bft) 97,14 %
24.08.2017 09:18 17,2 C 18,9 C 17,8 C 89 % 0 lf 1015,3 hPa 0,0 l/m 2 min 0 min 201 W/m 23,0 km/h (4 Bft) 100,00 %
24.08.2017 09:20 17,2 C 18,9 C 17,2 C 89 % 0 lf 1015,2 hPa 0,0 l/m 0 min 0 min 154 W/m 20,9 km/h (4 Bft) 95,74 %
24.08.2017 09:22 17,2 C 18,9 C 17,2 C 89 % 0 lf 1015,2 hPa 0,0 l/m 0 min 0 min 171 W/m 18,8 km/h (3 Bft) 95,74 %
24.08.2017 09:24 17,2 C 18,9 C 17,2 C 89 % 0 lf 1015,2 hPa 0,0 l/m 2 min 0 min 210 W/m 25,1 km/h (4 Bft) 97,14 %
24.08.2017 09:26 17,3 C 19,4 C 17,8 C 89 % 0 lf 1015,2 hPa 0,0 l/m 2 min 0 min 287 W/m 20,9 km/h (4 Bft) 96,61 %
24.08.2017 09:28 17,3 C 20,6 C 17,8 C 89 % 0 lf 1015,3 hPa 0,0 l/m 2 min 0 min 303 W/m 23,0 km/h (4 Bft) 97,87 %
24.08.2017 09:30 17,3 C 20,6 C 18,3 C 89 % 0 lf 1015,3 hPa 0,0 l/m 2 min 0 min 292 W/m 23,0 km/h (4 Bft) 97,83 %
24.08.2017 09:32 17,4 C 21,1 C 18,3 C 89 % 0 lf 1015,3 hPa 0,0 l/m 2 min 0 min 277 W/m 16,7 km/h (3 Bft) 97,87 %
24.08.2017 09:34 17,5 C 20,6 C 18,3 C 89 % 0 lf 1015,2 hPa 0,0 l/m 2 min 0 min 284 W/m 23,0 km/h (4 Bft) 97,87 %
24.08.2017 09:36 17,5 C 19,4 C 17,8 C 89 % 0 lf 1015,3 hPa 0,0 l/m 0 min 0 min 164 W/m 20,9 km/h (4 Bft) 95,74 %
24.08.2017 09:38 17,6 C 19,4 C 17,8 C 88 % 0 lf 1015,3 hPa 0,0 l/m 0 min 0 min 190 W/m 20,9 km/h (4 Bft) 93,62 %
24.08.2017 09:40 17,6 C 19,4 C 18,3 C 88 % 0 lf 1015,3 hPa 0,0 l/m 2 min 0 min 239 W/m 20,9 km/h (4 Bft) 95,74 %
24.08.2017 09:42 17,6 C 19,4 C 18,3 C 88 % 0 lf 1015,4 hPa 0,0 l/m 0 min 0 min 197 W/m 25,1 km/h (4 Bft) 97,83 %
24.08.2017 09:44 17,6 C 19,4 C 18,3 C 88 % 0 lf 1015,4 hPa 0,0 l/m 0 min 0 min 186 W/m 20,9 km/h (4 Bft) 100,00 %
24.08.2017 09:46 17,7 C 18,9 C 17,8 C 88 % 0 lf 1015,4 hPa 0,0 l/m 0 min 0 min 134 W/m 20,9 km/h (4 Bft) 94,83 %
24.08.2017 09:48 17,7 C 18,9 C 17,8 C 88 % 0 lf 1015,4 hPa 0,0 l/m 0 min 0 min 161 W/m 18,8 km/h (3 Bft) 95,74 %
24.08.2017 09:50 17,7 C 19,4 C 18,3 C 88 % 0 lf 1015,4 hPa 0,0 l/m 0 min 0 min 209 W/m 10,5 km/h (2 Bft) 95,74 %
24.08.2017 09:52 17,7 C 19,4 C 18,3 C 88 % 0 lf 1015,4 hPa 0,0 l/m 0 min 0 min 218 W/m 16,7 km/h (3 Bft) 100,00 %
24.08.2017 09:54 17,8 C 20,0 C 18,3 C 88 % 0 lf 1015,4 hPa 0,0 l/m 0 min 0 min 210 W/m 16,7 km/h (3 Bft) 96,55 %
24.08.2017 09:56 17,8 C 20,6 C 18,9 C 88 % 0 lf 1015,4 hPa 0,0 l/m 2 min 0 min 244 W/m 16,7 km/h (3 Bft) 95,74 %
24.08.2017 09:58 17,8 C 20,6 C 19,4 C 88 % 0 lf 1015,5 hPa 0,0 l/m 2 min 0 min 274 W/m 14,6 km/h (3 Bft) 97,87 %
24.08.2017 10:00 17,9 C 20,6 C 19,4 C 88 % 0 lf 1015,5 hPa 0,0 l/m 2 min 0 min 309 W/m 16,7 km/h (3 Bft) 100,00 %
24.08.2017 10:02 18,0 C 21,1 C 20,0 C 88 % 0 lf 1015,5 hPa 0,0 l/m 2 min 0 min 351 W/m 20,9 km/h (4 Bft) 96,43 %
24.08.2017 10:04 18,1 C 22,2 C 21,1 C 88 % 0 lf 1015,6 hPa 0,0 l/m 2 min 0 min 359 W/m 20,9 km/h (4 Bft) 100,00 %
24.08.2017 10:06 18,1 C 21,1 C 20,0 C 87 % 0 lf 1015,6 hPa 0,0 l/m 2 min 0 min 319 W/m 18,8 km/h (3 Bft) 100,00 %
24.08.2017 10:08 18,2 C 21,1 C 20,0 C 87 % 0 lf 1015,6 hPa 0,0 l/m 0 min 0 min 200 W/m 16,7 km/h (3 Bft) 100,00 %
24.08.2017 10:10 18,3 C 20,6 C 20,0 C 87 % 0 lf 1015,6 hPa 0,0 l/m 0 min 0 min 223 W/m 18,8 km/h (3 Bft) 97,87 %
24.08.2017 10:12 18,3 C 21,1 C 20,0 C 86 % 0 lf 1015,6 hPa 0,0 l/m 0 min 0 min 248 W/m 16,7 km/h (3 Bft) 100,00 %
24.08.2017 10:14 18,3 C 21,1 C 20,0 C 86 % 0 lf 1015,7 hPa 0,0 l/m 0 min 0 min 244 W/m 14,6 km/h (3 Bft) 97,87 %
24.08.2017 10:16 18,4 C 20,6 C 20,0 C 86 % 0 lf 1015,7 hPa 0,0 l/m 0 min 0 min 225 W/m 10,5 km/h (2 Bft) 95,74 %
24.08.2017 10:18 18,4 C 20,6 C 20,0 C 86 % 0 lf 1015,7 hPa 0,0 l/m 0 min 0 min 172 W/m 12,6 km/h (3 Bft) 100,00 %
24.08.2017 10:20 18,4 C 19,4 C 19,4 C 86 % 0 lf 1015,7 hPa 0,0 l/m 0 min 0 min 143 W/m 16,7 km/h (3 Bft) 97,87 %
24.08.2017 10:22 18,4 C 19,4 C 18,9 C 86 % 0 lf 1015,7 hPa 0,0 l/m 0 min 0 min 134 W/m 23,0 km/h (4 Bft) 100,00 %
24.08.2017 10:24 18,4 C 18,9 C 18,9 C 85 % 0 lf 1015,7 hPa 0,0 l/m 0 min 0 min 144 W/m 25,1 km/h (4 Bft) 100,00 %
24.08.2017 10:26 18,4 C 18,9 C 18,9 C 85 % 0 lf 1015,8 hPa 0,0 l/m 0 min 0 min 159 W/m 18,8 km/h (3 Bft) 100,00 %
24.08.2017 10:28 18,4 C 18,9 C 18,9 C 85 % 0 lf 1015,8 hPa 0,0 l/m 0 min 0 min 170 W/m 23,0 km/h (4 Bft) 100,00 %
24.08.2017 10:30 18,4 C 18,9 C 18,9 C 85 % 0 lf 1015,8 hPa 0,0 l/m 0 min 0 min 171 W/m 20,9 km/h (4 Bft) 100,00 %
24.08.2017 10:32 18,3 C 18,9 C 18,9 C 85 % 0 lf 1015,9 hPa 0,0 l/m 0 min 0 min 175 W/m 14,6 km/h (3 Bft) 97,87 %
24.08.2017 10:34 18,3 C 18,9 C 18,9 C 85 % 0 lf 1015,9 hPa 0,0 l/m 0 min 0 min 160 W/m 18,8 km/h (3 Bft) 97,87 %
24.08.2017 10:36 18,3 C 18,9 C 18,9 C 85 % 0 lf 1015,9 hPa 0,0 l/m 0 min 0 min 134 W/m 12,6 km/h (3 Bft) 97,87 %
24.08.2017 10:38 18,3 C 18,9 C 18,9 C 85 % 0 lf 1015,9 hPa 0,0 l/m 0 min 0 min 138 W/m 16,7 km/h (3 Bft) 100,00 %
24.08.2017 10:40 18,4 C 19,4 C 18,9 C 85 % 0 lf 1016,0 hPa 0,0 l/m 0 min 0 min 135 W/m 12,6 km/h (3 Bft) 95,74 %
24.08.2017 10:42 18,4 C 19,4 C 18,9 C 86 % 0 lf 1016,0 hPa 0,0 l/m 0 min 0 min 131 W/m 12,6 km/h (3 Bft) 97,83 %
24.08.2017 10:44 18,4 C 19,4 C 18,9 C 86 % 0 lf 1016,2 hPa 0,0 l/m 0 min 0 min 122 W/m 14,6 km/h (3 Bft) 95,74 %
24.08.2017 10:46 18,4 C 19,4 C 18,9 C 86 % 0 lf 1016,1 hPa 0,0 l/m 0 min 0 min 131 W/m 14,6 km/h (3 Bft) 97,87 %
24.08.2017 10:48 18,4 C 19,4 C 18,9 C 86 % 0 lf 1016,1 hPa 0,0 l/m 0 min 0 min 139 W/m 14,6 km/h (3 Bft) 97,87 %
24.08.2017 10:50 18,4 C 18,9 C 18,9 C 86 % 0 lf 1016,1 hPa 0,0 l/m 0 min 0 min 148 W/m 18,8 km/h (3 Bft) 95,74 %
24.08.2017 10:52 18,4 C 19,4 C 18,9 C 85 % 0 lf 1016,2 hPa 0,0 l/m 0 min 0 min 150 W/m 14,6 km/h (3 Bft) 97,87 %
24.08.2017 10:54 18,4 C 19,4 C 18,9 C 85 % 0 lf 1016,2 hPa 0,0 l/m 0 min 0 min 172 W/m 18,8 km/h (3 Bft) 97,83 %
24.08.2017 10:56 18,4 C 19,4 C 19,4 C 85 % 0 lf 1016,2 hPa 0,0 l/m 0 min 0 min 228 W/m 18,8 km/h (3 Bft) 97,87 %
24.08.2017 10:58 18,4 C 20,0 C 19,4 C 85 % 0 lf 1016,2 hPa 0,0 l/m 0 min 0 min 258 W/m 20,9 km/h (4 Bft) 95,74 %
24.08.2017 11:00 18,5 C 20,0 C 19,4 C 85 % 0 lf 1016,2 hPa 0,0 l/m 0 min 0 min 230 W/m 20,9 km/h (4 Bft) 93,62 %
24.08.2017 11:02 18,5 C 20,6 C 20,0 C 85 % 0 lf 1016,2 hPa 0,0 l/m 0 min 0 min 212 W/m 12,6 km/h (3 Bft) 89,36 %
24.08.2017 11:04 18,6 C 20,0 C 20,0 C 85 % 0 lf 1016,2 hPa 0,0 l/m 0 min 0 min 229 W/m 23,0 km/h (4 Bft) 95,65 %
24.08.2017 11:06 18,6 C 21,1 C 20,0 C 85 % 0 lf 1016,2 hPa 0,0 l/m 0 min 0 min 270 W/m 18,8 km/h (3 Bft) 93,62 %
24.08.2017 11:08 18,6 C 21,1 C 20,0 C 85 % 0 lf 1016,2 hPa 0,0 l/m 0 min 0 min 252 W/m 16,7 km/h (3 Bft) 95,74 %
24.08.2017 11:10 18,7 C 21,1 C 20,6 C 85 % 0 lf 1016,2 hPa 0,0 l/m 0 min 0 min 179 W/m 16,7 km/h (3 Bft) 95,74 %
24.08.2017 11:12 18,7 C 20,6 C 20,0 C 85 % 0 lf 1016,2 hPa 0,0 l/m 0 min 0 min 183 W/m 20,9 km/h (4 Bft) 93,62 %
24.08.2017 11:14 18,7 C 20,6 C 20,0 C 84 % 0 lf 1016,2 hPa 0,0 l/m 0 min 0 min 208 W/m 16,7 km/h (3 Bft) 97,87 %
24.08.2017 11:16 18,7 C 20,6 C 20,0 C 84 % 0 lf 1016,1 hPa 0,0 l/m 0 min 0 min 243 W/m 18,8 km/h (3 Bft) 95,65 %
24.08.2017 11:18 18,8 C 21,1 C 20,0 C 84 % 0 lf 1016,1 hPa 0,0 l/m 0 min 0 min 228 W/m 16,7 km/h (3 Bft) 95,74 %
24.08.2017 11:20 18,8 C 21,7 C 20,6 C 84 % 0 lf 1016,1 hPa 0,0 l/m 0 min 0 min 270 W/m 16,7 km/h (3 Bft) 93,62 %
24.08.2017 11:22 18,9 C 22,2 C 21,1 C 84 % 0 lf 1016,1 hPa 0,0 l/m 0 min 0 min 298 W/m 18,8 km/h (3 Bft) 89,36 %
24.08.2017 11:24 18,9 C 25,0 C 22,8 C 84 % 0 lf 1016,2 hPa 0,0 l/m 2 min 0 min 603 W/m 18,8 km/h (3 Bft) 93,62 %
24.08.2017 11:26 19,1 C 25,0 C 22,8 C 84 % 0 lf 1016,2 hPa 0,0 l/m 2 min 0 min 828 W/m 18,8 km/h (3 Bft) 93,62 %
24.08.2017 11:28 19,2 C 26,1 C 23,9 C 84 % 0 lf 1016,2 hPa 0,0 l/m 2 min 0 min 584 W/m 20,9 km/h (4 Bft) 93,62 %
24.08.2017 11:30 19,3 C 27,8 C 25,0 C 84 % 0 lf 1016,2 hPa 0,0 l/m 2 min 0 min 786 W/m 14,6 km/h (3 Bft) 93,48 %
24.08.2017 11:32 19,4 C 29,4 C 26,7 C 84 % 0 lf 1016,1 hPa 0,0 l/m 2 min 0 min 816 W/m 14,6 km/h (3 Bft) 93,62 %
24.08.2017 11:34 19,6 C 28,9 C 27,2 C 83 % 0 lf 1016,1 hPa 0,0 l/m 2 min 0 min 823 W/m 16,7 km/h (3 Bft) 93,62 %
24.08.2017 11:36 19,8 C 29,4 C 26,7 C 82 % 0 lf 1016,1 hPa 0,0 l/m 2 min 0 min 814 W/m 16,7 km/h (3 Bft) 93,62 %
24.08.2017 11:38 20,0 C 29,4 C 26,7 C 82 % 0 lf 1016,2 hPa 0,0 l/m 2 min 0 min 770 W/m 23,0 km/h (4 Bft) 93,62 %
24.08.2017 11:40 20,2 C 28,9 C 26,7 C 81 % 0 lf 1016,2 hPa 0,0 l/m 2 min 0 min 865 W/m 16,7 km/h (3 Bft) 95,65 %
24.08.2017 11:42 20,3 C 28,3 C 25,6 C 81 % 0 lf 1016,1 hPa 0,0 l/m 2 min 0 min 559 W/m 18,8 km/h (3 Bft) 93,62 %
24.08.2017 11:44 20,5 C 27,2 C 25,0 C 79 % 0 lf 1016,2 hPa 0,0 l/m 2 min 0 min 339 W/m 16,7 km/h (3 Bft) 93,62 %
24.08.2017 11:46 20,6 C 25,6 C 23,9 C 78 % 0 lf 1016,2 hPa 0,0 l/m 0 min 0 min 328 W/m 12,6 km/h (3 Bft) 93,62 %
24.08.2017 11:48 20,6 C 25,0 C 23,9 C 78 % 0 lf 1016,2 hPa 0,0 l/m 2 min 0 min 361 W/m 14,6 km/h (3 Bft) 95,74 %
24.08.2017 11:50 20,7 C 24,4 C 23,3 C 78 % 0 lf 1016,2 hPa 0,0 l/m 2 min 0 min 355 W/m 14,6 km/h (3 Bft) 93,62 %
24.08.2017 11:52 20,7 C 24,4 C 22,8 C 78 % 0 lf 1016,2 hPa 0,0 l/m 2 min 0 min 343 W/m 16,7 km/h (3 Bft) 95,65 %
24.08.2017 11:54 20,7 C 24,4 C 22,8 C 78 % 0 lf 1016,1 hPa 0,0 l/m 0 min 0 min 280 W/m 20,9 km/h (4 Bft) 89,36 %
24.08.2017 11:56 20,7 C 24,4 C 22,8 C 77 % 0 lf 1016,1 hPa 0,0 l/m 0 min 0 min 308 W/m 16,7 km/h (3 Bft) 91,49 %
24.08.2017 11:58 20,7 C 24,4 C 22,8 C 77 % 0 lf 1016,1 hPa 0,0 l/m 0 min 0 min 299 W/m 16,7 km/h (3 Bft) 95,74 %
24.08.2017 12:00 20,8 C 25,0 C 23,3 C 77 % 0 lf 1016,2 hPa 0,0 l/m 0 min 0 min 316 W/m 14,6 km/h (3 Bft) 93,62 %
24.08.2017 12:02 20,8 C 26,1 C 24,4 C 78 % 0 lf 1016,2 hPa 0,0 l/m 2 min 0 min 604 W/m 14,6 km/h (3 Bft) 95,74 %
24.08.2017 12:04 20,9 C 26,1 C 24,4 C 78 % 0 lf 1016,2 hPa 0,0 l/m 2 min 0 min 366 W/m 16,7 km/h (3 Bft) 95,65 %
24.08.2017 12:08 21,0 C 23,9 C 23,3 C 76 % 0 lf 1016,2 hPa 0,0 l/m 0 min 0 min 328 W/m 23,0 km/h (4 Bft) 95,74 %
24.08.2017 12:10 21,0 C 23,3 C 23,3 C 75 % 0 lf 1016,2 hPa 0,0 l/m 0 min 0 min 329 W/m 18,8 km/h (3 Bft) 95,74 %
24.08.2017 12:12 21,0 C 23,3 C 22,8 C 75 % 0 lf 1016,2 hPa 0,0 l/m 0 min 0 min 309 W/m 14,6 km/h (3 Bft) 97,87 %
24.08.2017 12:14 21,0 C 24,4 C 23,3 C 76 % 0 lf 1016,2 hPa 0,0 l/m 0 min 0 min 343 W/m 16,7 km/h (3 Bft) 97,87 %
24.08.2017 12:16 21,0 C 25,6 C 24,4 C 76 % 0 lf 1016,2 hPa 0,0 l/m 2 min 0 min 389 W/m 18,8 km/h (3 Bft) 97,83 %
24.08.2017 12:18 21,1 C 26,1 C 25,6 C 76 % 0 lf 1016,2 hPa 0,0 l/m 2 min 0 min 540 W/m 27,2 km/h (4 Bft) 97,87 %
24.08.2017 12:20 21,2 C 26,7 C 25,6 C 76 % 0 lf 1016,2 hPa 0,0 l/m 2 min 0 min 550 W/m 23,0 km/h (4 Bft) 95,74 %
24.08.2017 12:22 21,3 C 26,7 C 25,0 C 76 % 0 lf 1016,2 hPa 0,0 l/m 2 min 0 min 522 W/m 20,9 km/h (4 Bft) 93,62 %
24.08.2017 12:24 21,3 C 26,7 C 24,4 C 75 % 0 lf 1016,1 hPa 0,0 l/m 0 min 0 min 324 W/m 16,7 km/h (3 Bft) 97,87 %
24.08.2017 12:26 21,4 C 28,3 C 25,0 C 76 % 0 lf 1016,1 hPa 0,0 l/m 2 min 0 min 576 W/m 23,0 km/h (4 Bft) 97,83 %
24.08.2017 12:28 21,6 C 29,4 C 26,1 C 76 % 0 lf 1016,1 hPa 0,0 l/m 2 min 0 min 868 W/m 20,9 km/h (4 Bft) 95,74 %
24.08.2017 12:30 21,7 C 30,6 C 26,1 C 76 % 0 lf 1016,1 hPa 0,0 l/m 2 min 0 min 859 W/m 14,6 km/h (3 Bft) 97,87 %
24.08.2017 12:32 21,8 C 30,0 C 26,7 C 75 % 0 lf 1015,9 hPa 0,0 l/m 2 min 0 min 857 W/m 16,7 km/h (3 Bft) 97,87 %
24.08.2017 12:34 21,9 C 31,1 C 26,1 C 75 % 0 lf 1016,1 hPa 0,0 l/m 2 min 0 min 620 W/m 14,6 km/h (3 Bft) 97,87 %
24.08.2017 12:36 22,1 C 30,6 C 25,6 C 74 % 0 lf 1016,1 hPa 0,0 l/m 2 min 0 min 436 W/m 14,6 km/h (3 Bft) 97,87 %
24.08.2017 12:38 22,2 C 29,4 C 24,4 C 73 % 0 lf 1016,1 hPa 0,0 l/m 2 min 0 min 436 W/m 16,7 km/h (3 Bft) 100,00 %
24.08.2017 12:40 22,2 C 26,1 C 23,9 C 71 % 0 lf 1016,1 hPa 0,0 l/m 0 min 0 min 194 W/m 14,6 km/h (3 Bft) 100,00 %
24.08.2017 12:42 22,1 C 25,6 C 22,8 C 71 % 0 lf 1016,2 hPa 0,0 l/m 0 min 0 min 190 W/m 18,8 km/h (3 Bft) 97,87 %
24.08.2017 12:44 22,0 C 25,6 C 22,8 C 71 % 0 lf 1016,2 hPa 0,0 l/m 0 min 0 min 188 W/m 16,7 km/h (3 Bft) 95,74 %
24.08.2017 12:46 22,0 C 27,8 C 23,3 C 72 % 0 lf 1016,2 hPa 0,0 l/m 2 min 0 min 565 W/m 16,7 km/h (3 Bft) 97,87 %
24.08.2017 12:48 22,1 C 28,9 C 24,4 C 73 % 0 lf 1016,2 hPa 0,0 l/m 2 min 0 min 851 W/m 25,1 km/h (4 Bft) 100,00 %
24.08.2017 12:50 22,1 C 29,4 C 24,4 C 72 % 0 lf 1016,2 hPa 0,0 l/m 2 min 0 min 856 W/m 18,8 km/h (3 Bft) 97,83 %
24.08.2017 12:52 22,2 C 30,0 C 25,0 C 72 % 0 lf 1016,2 hPa 0,0 l/m 2 min 0 min 887 W/m 25,1 km/h (4 Bft) 98,00 %
24.08.2017 12:54 22,3 C 30,6 C 26,1 C 71 % 0 lf 1016,2 hPa 0,0 l/m 2 min 0 min 926 W/m 16,7 km/h (3 Bft) 100,00 %
24.08.2017 12:56 22,4 C 30,6 C 26,7 C 71 % 0 lf 1016,2 hPa 0,0 l/m 2 min 0 min 932 W/m 18,8 km/h (3 Bft) 100,00 %
24.08.2017 12:58 22,4 C 28,9 C 26,1 C 70 % 0 lf 1016,1 hPa 0,0 l/m 2 min 0 min 932 W/m 16,7 km/h (3 Bft) 97,87 %
24.08.2017 13:00 22,5 C 27,2 C 26,1 C 70 % 0 lf 1016,1 hPa 0,0 l/m 2 min 0 min 936 W/m 16,7 km/h (3 Bft) 100,00 %
24.08.2017 13:02 22,6 C 26,1 C 25,6 C 70 % 0 lf 1016,2 hPa 0,0 l/m 2 min 0 min 431 W/m 23,0 km/h (4 Bft) 97,92 %
24.08.2017 13:04 22,6 C 26,7 C 25,0 C 70 % 0 lf 1016,1 hPa 0,0 l/m 2 min 0 min 376 W/m 14,6 km/h (3 Bft) 97,83 %
24.08.2017 13:06 22,6 C 27,8 C 24,4 C 70 % 0 lf 1016,1 hPa 0,0 l/m 0 min 0 min 357 W/m 18,8 km/h (3 Bft) 97,87 %
24.08.2017 13:08 22,6 C 29,4 C 25,0 C 70 % 0 lf 1016,1 hPa 0,0 l/m 2 min 0 min 774 W/m 18,8 km/h (3 Bft) 100,00 %
24.08.2017 13:10 22,7 C 30,6 C 25,6 C 70 % 0 lf 1016,1 hPa 0,0 l/m 2 min 0 min 846 W/m 18,8 km/h (3 Bft) 97,87 %
24.08.2017 13:12 22,7 C 31,1 C 25,6 C 70 % 0 lf 1016,1 hPa 0,0 l/m 2 min 0 min 862 W/m 14,6 km/h (3 Bft) 100,00 %
24.08.2017 13:14 22,8 C 32,2 C 26,1 C 71 % 0 lf 1016,2 hPa 0,0 l/m 2 min 0 min 861 W/m 18,8 km/h (3 Bft) 100,00 %
24.08.2017 13:16 22,9 C 31,7 C 26,1 C 70 % 0 lf 1016,1 hPa 0,0 l/m 2 min 0 min 836 W/m 20,9 km/h (4 Bft) 97,83 %
24.08.2017 13:18 23,1 C 32,8 C 25,6 C 69 % 0 lf 1016,2 hPa 0,0 l/m 2 min 0 min 822 W/m 16,7 km/h (3 Bft) 100,00 %
24.08.2017 13:20 23,2 C 32,8 C 25,6 C 69 % 0 lf 1016,1 hPa 0,0 l/m 2 min 0 min 814 W/m 10,5 km/h (2 Bft) 100,00 %
24.08.2017 13:22 23,3 C 32,8 C 25,6 C 68 % 0 lf 1016,1 hPa 0,0 l/m 2 min 0 min 818 W/m 18,8 km/h (3 Bft) 98,25 %
24.08.2017 13:24 23,4 C 32,8 C 25,6 C 67 % 0 lf 1016,1 hPa 0,0 l/m 2 min 0 min 810 W/m 16,7 km/h (3 Bft) 100,00 %
24.08.2017 13:26 23,4 C 32,8 C 25,0 C 66 % 0 lf 1016,2 hPa 0,0 l/m 2 min 0 min 838 W/m 18,8 km/h (3 Bft) 97,87 %
24.08.2017 13:28 23,5 C 30,0 C 25,0 C 67 % 0 lf 1016,2 hPa 0,0 l/m 2 min 0 min 700 W/m 20,9 km/h (4 Bft) 97,87 %
24.08.2017 13:30 23,5 C 28,3 C 23,9 C 65 % 0 lf 1016,2 hPa 0,0 l/m 0 min 0 min 255 W/m 18,8 km/h (3 Bft) 97,87 %
24.08.2017 13:32 23,4 C 27,2 C 23,9 C 65 % 0 lf 1016,3 hPa 0,0 l/m 0 min 0 min 253 W/m 14,6 km/h (3 Bft) 95,74 %
24.08.2017 13:34 23,4 C 27,2 C 23,9 C 65 % 0 lf 1016,3 hPa 0,0 l/m 0 min 0 min 262 W/m 12,6 km/h (3 Bft) 97,87 %
24.08.2017 13:36 23,3 C 27,2 C 23,3 C 66 % 0 lf 1016,2 hPa 0,0 l/m 0 min 0 min 264 W/m 18,8 km/h (3 Bft) 89,13 %
24.08.2017 13:38 23,3 C 27,2 C 23,3 C 66 % 0 lf 1016,2 hPa 0,0 l/m 0 min 0 min 308 W/m 23,0 km/h (4 Bft) 95,74 %
24.08.2017 13:40 23,2 C 26,1 C 23,3 C 66 % 0 lf 1016,2 hPa 0,0 l/m 2 min 0 min 566 W/m 18,8 km/h (3 Bft) 95,74 %
24.08.2017 13:42 23,1 C 25,0 C 23,3 C 66 % 0 lf 1016,2 hPa 0,0 l/m 0 min 0 min 204 W/m 16,7 km/h (3 Bft) 95,74 %
24.08.2017 13:44 23,1 C 24,4 C 23,3 C 66 % 0 lf 1016,3 hPa 0,0 l/m 0 min 0 min 218 W/m 8,4 km/h (2 Bft) 97,87 %
24.08.2017 13:46 23,0 C 23,9 C 22,8 C 66 % 0 lf 1016,3 hPa 0,0 l/m 0 min 0 min 182 W/m 18,8 km/h (3 Bft) 93,62 %
24.08.2017 13:48 22,9 C 25,0 C 22,8 C 66 % 0 lf 1016,2 hPa 0,0 l/m 0 min 0 min 185 W/m 18,8 km/h (3 Bft) 95,74 %
24.08.2017 13:50 22,8 C 26,7 C 22,8 C 67 % 0 lf 1016,2 hPa 0,0 l/m 2 min 0 min 723 W/m 12,6 km/h (3 Bft) 91,30 %
24.08.2017 13:52 22,8 C 28,3 C 23,3 C 68 % 0 lf 1016,3 hPa 0,0 l/m 2 min 0 min 786 W/m 18,8 km/h (3 Bft) 92,11 %
24.08.2017 13:54 22,9 C 28,9 C 23,3 C 67 % 0 lf 1016,3 hPa 0,0 l/m 2 min 0 min 776 W/m 18,8 km/h (3 Bft) 93,62 %
24.08.2017 13:56 22,9 C 30,6 C 23,9 C 68 % 0 lf 1016,2 hPa 0,0 l/m 2 min 0 min 773 W/m 16,7 km/h (3 Bft) 95,74 %
24.08.2017 13:58 23,0 C 30,6 C 24,4 C 69 % 0 lf 1016,2 hPa 0,0 l/m 2 min 0 min 804 W/m 12,6 km/h (3 Bft) 93,62 %
24.08.2017 14:00 23,2 C 29,4 C 25,0 C 69 % 0 lf 1016,1 hPa 0,0 l/m 2 min 0 min 834 W/m 12,6 km/h (3 Bft) 91,49 %
24.08.2017 14:02 23,2 C 30,0 C 24,4 C 67 % 0 lf 1016,2 hPa 0,0 l/m 2 min 0 min 835 W/m 12,6 km/h (3 Bft) 89,36 %
24.08.2017 14:04 23,2 C 28,3 C 23,9 C 66 % 0 lf 1016,2 hPa 0,0 l/m 0 min 0 min 363 W/m 12,6 km/h (3 Bft) 95,65 %
24.08.2017 14:06 23,3 C 27,8 C 23,3 C 66 % 0 lf 1016,2 hPa 0,0 l/m 0 min 0 min 186 W/m 18,8 km/h (3 Bft) 93,62 %
24.08.2017 14:08 23,2 C 25,6 C 22,8 C 65 % 0 lf 1016,2 hPa 0,0 l/m 0 min 0 min 221 W/m 18,8 km/h (3 Bft) 93,62 %
24.08.2017 14:10 23,2 C 27,2 C 22,8 C 66 % 0 lf 1016,1 hPa 0,0 l/m 0 min 0 min 359 W/m 18,8 km/h (3 Bft) 91,49 %
24.08.2017 14:12 23,2 C 30,0 C 23,3 C 67 % 0 lf 1016,1 hPa 0,0 l/m 2 min 0 min 778 W/m 20,9 km/h (4 Bft) 93,62 %
24.08.2017 14:14 23,3 C 30,6 C 23,9 C 66 % 0 lf 1016,1 hPa 0,0 l/m 2 min 0 min 770 W/m 16,7 km/h (3 Bft) 95,65 %
24.08.2017 14:16 23,3 C 30,6 C 24,4 C 66 % 0 lf 1016,1 hPa 0,0 l/m 2 min 0 min 774 W/m 20,9 km/h (4 Bft) 95,74 %
24.08.2017 14:18 23,4 C 30,0 C 24,4 C 65 % 0 lf 1016,2 hPa 0,0 l/m 2 min 0 min 770 W/m 25,1 km/h (4 Bft) 95,74 %
24.08.2017 14:20 23,4 C 29,4 C 23,9 C 64 % 0 lf 1016,2 hPa 0,0 l/m 2 min 0 min 775 W/m 23,0 km/h (4 Bft) 97,87 %
24.08.2017 14:22 23,5 C 30,0 C 23,9 C 65 % 0 lf 1016,2 hPa 0,0 l/m 2 min 0 min 770 W/m 14,6 km/h (3 Bft) 97,96 %
24.08.2017 14:24 23,6 C 30,6 C 24,4 C 65 % 0 lf 1016,2 hPa 0,0 l/m 2 min 0 min 778 W/m 18,8 km/h (3 Bft) 95,74 %
24.08.2017 14:26 23,7 C 30,6 C 24,4 C 64 % 0 lf 1016,1 hPa 0,0 l/m 2 min 0 min 781 W/m 14,6 km/h (3 Bft) 97,83 %
24.08.2017 14:28 23,8 C 32,2 C 25,0 C 66 % 0 lf 1016,1 hPa 0,0 l/m 2 min 0 min 791 W/m 14,6 km/h (3 Bft) 95,74 %
24.08.2017 14:30 23,9 C 32,2 C 25,6 C 66 % 0 lf 1016,0 hPa 0,0 l/m 2 min 0 min 796 W/m 18,8 km/h (3 Bft) 97,87 %
24.08.2017 14:32 24,0 C 32,2 C 26,1 C 63 % 0 lf 1016,1 hPa 0,0 l/m 2 min 0 min 808 W/m 25,1 km/h (4 Bft) 97,87 %
24.08.2017 14:34 24,1 C 30,6 C 27,2 C 62 % 0 lf 1016,1 hPa 0,0 l/m 2 min 0 min 812 W/m 25,1 km/h (4 Bft) 97,87 %
24.08.2017 14:36 24,2 C 30,6 C 28,3 C 63 % 0 lf 1016,1 hPa 0,0 l/m 2 min 0 min 816 W/m 20,9 km/h (4 Bft) 97,87 %
24.08.2017 14:38 24,2 C 31,1 C 29,4 C 63 % 0 lf 1016,1 hPa 0,0 l/m 2 min 0 min 823 W/m 23,0 km/h (4 Bft) 100,00 %
24.08.2017 14:40 24,3 C 30,6 C 30,0 C 63 % 0 lf 1016,1 hPa 0,0 l/m 2 min 0 min 795 W/m 20,9 km/h (4 Bft) 95,74 %
24.08.2017 14:42 24,3 C 30,6 C 30,6 C 63 % 0 lf 1016,1 hPa 0,0 l/m 2 min 0 min 779 W/m 20,9 km/h (4 Bft) 97,87 %
24.08.2017 14:44 24,3 C 30,0 C 30,6 C 63 % 0 lf 1016,0 hPa 0,0 l/m 2 min 0 min 768 W/m 20,9 km/h (4 Bft) 97,87 %
24.08.2017 14:46 24,4 C 31,1 C 31,1 C 64 % 0 lf 1016,1 hPa 0,0 l/m 2 min 0 min 736 W/m 23,0 km/h (4 Bft) 97,87 %
24.08.2017 14:48 24,4 C 30,6 C 31,1 C 63 % 0 lf 1016,1 hPa 0,0 l/m 2 min 0 min 771 W/m 20,9 km/h (4 Bft) 100,00 %
24.08.2017 14:50 24,4 C 31,1 C 31,7 C 64 % 0 lf 1016,1 hPa 0,0 l/m 2 min 0 min 735 W/m 12,6 km/h (3 Bft) 97,83 %
24.08.2017 14:52 24,4 C 32,2 C 31,7 C 62 % 0 lf 1015,9 hPa 0,0 l/m 2 min 0 min 713 W/m 8,4 km/h (2 Bft) 95,74 %
24.08.2017 14:54 24,5 C 32,2 C 30,6 C 62 % 0 lf 1015,9 hPa 0,0 l/m 2 min 0 min 501 W/m 10,5 km/h (2 Bft) 97,87 %
24.08.2017 14:56 24,5 C 31,7 C 30,6 C 63 % 0 lf 1015,9 hPa 0,0 l/m 0 min 0 min 323 W/m 10,5 km/h (2 Bft) 97,87 %
24.08.2017 14:58 24,5 C 31,1 C 30,6 C 61 % 0 lf 1016,0 hPa 0,0 l/m 2 min 0 min 659 W/m 23,0 km/h (4 Bft) 97,87 %
24.08.2017 15:00 24,5 C 30,6 C 30,6 C 59 % 0 lf 1016,0 hPa 0,0 l/m 2 min 0 min 715 W/m 25,1 km/h (4 Bft) 97,87 %
24.08.2017 15:02 24,5 C 30,0 C 30,6 C 60 % 0 lf 1016,0 hPa 0,0 l/m 2 min 0 min 701 W/m 20,9 km/h (4 Bft) 93,48 %
24.08.2017 15:04 24,5 C 29,4 C 30,0 C 58 % 0 lf 1016,0 hPa 0,0 l/m 2 min 0 min 682 W/m 14,6 km/h (3 Bft) 95,74 %
24.08.2017 15:06 24,5 C 31,1 C 31,1 C 60 % 0 lf 1016,0 hPa 0,0 l/m 2 min 0 min 671 W/m 8,4 km/h (2 Bft) 97,87 %
24.08.2017 15:08 24,5 C 31,1 C 31,7 C 60 % 0 lf 1015,9 hPa 0,0 l/m 2 min 0 min 662 W/m 18,8 km/h (3 Bft) 97,87 %
24.08.2017 15:10 24,6 C 30,6 C 30,6 C 59 % 0 lf 1016,0 hPa 0,0 l/m 2 min 0 min 654 W/m 16,7 km/h (3 Bft) 97,87 %
24.08.2017 15:12 24,6 C 30,0 C 30,6 C 60 % 0 lf 1016,0 hPa 0,0 l/m 2 min 0 min 658 W/m 16,7 km/h (3 Bft) 95,65 %
24.08.2017 15:14 24,6 C 29,4 C 30,6 C 59 % 0 lf 1015,9 hPa 0,0 l/m 2 min 0 min 661 W/m 20,9 km/h (4 Bft) 95,74 %
24.08.2017 15:16 24,5 C 27,8 C 30,6 C 58 % 0 lf 1015,9 hPa 0,0 l/m 2 min 0 min 665 W/m 18,8 km/h (3 Bft) 93,62 %
24.08.2017 15:18 24,4 C 28,3 C 30,0 C 58 % 0 lf 1016,0 hPa 0,0 l/m 2 min 0 min 654 W/m 20,9 km/h (4 Bft) 97,87 %
24.08.2017 15:20 24,4 C 28,9 C 30,6 C 59 % 0 lf 1016,0 hPa 0,0 l/m 2 min 0 min 734 W/m 16,7 km/h (3 Bft) 97,87 %
24.08.2017 15:22 24,5 C 29,4 C 31,1 C 59 % 0 lf 1016,0 hPa 0,0 l/m 2 min 0 min 777 W/m 20,9 km/h (4 Bft) 96,23 %
24.08.2017 15:24 24,5 C 30,0 C 30,6 C 60 % 0 lf 1016,1 hPa 0,0 l/m 2 min 0 min 756 W/m 20,9 km/h (4 Bft) 95,74 %
24.08.2017 15:26 24,5 C 28,9 C 28,3 C 59 % 0 lf 1016,0 hPa 0,0 l/m 2 min 0 min 405 W/m 16,7 km/h (3 Bft) 97,87 %
24.08.2017 15:28 24,4 C 27,8 C 27,2 C 58 % 0 lf 1016,1 hPa 0,0 l/m 0 min 0 min 271 W/m 14,6 km/h (3 Bft) 97,87 %
24.08.2017 15:30 24,4 C 28,3 C 27,2 C 58 % 0 lf 1016,0 hPa 0,0 l/m 2 min 0 min 457 W/m 10,5 km/h (2 Bft) 97,87 %
24.08.2017 15:32 24,5 C 28,3 C 26,7 C 60 % 0 lf 1015,9 hPa 0,0 l/m 2 min 0 min 531 W/m 12,6 km/h (3 Bft) 97,87 %
24.08.2017 15:34 24,5 C 28,9 C 26,7 C 59 % 0 lf 1016,0 hPa 0,0 l/m 2 min 0 min 580 W/m 12,6 km/h (3 Bft) 97,83 %
24.08.2017 15:36 24,6 C 30,0 C 26,7 C 61 % 0 lf 1015,9 hPa 0,0 l/m 2 min 0 min 632 W/m 10,5 km/h (2 Bft) 95,74 %
24.08.2017 15:38 24,6 C 28,9 C 26,7 C 61 % 0 lf 1015,9 hPa 0,0 l/m 2 min 0 min 681 W/m 20,9 km/h (4 Bft) 93,62 %
24.08.2017 15:40 24,6 C 30,0 C 26,7 C 59 % 0 lf 1015,9 hPa 0,0 l/m 2 min 0 min 710 W/m 16,7 km/h (3 Bft) 95,74 %
24.08.2017 15:42 24,6 C 28,9 C 26,7 C 60 % 0 lf 1015,9 hPa 0,0 l/m 2 min 0 min 712 W/m 27,2 km/h (4 Bft) 97,87 %
24.08.2017 15:44 24,6 C 27,8 C 26,7 C 58 % 0 lf 1015,9 hPa 0,0 l/m 2 min 0 min 417 W/m 12,6 km/h (3 Bft) 95,74 %
24.08.2017 15:46 24,6 C 28,3 C 26,1 C 58 % 0 lf 1015,9 hPa 0,0 l/m 0 min 0 min 295 W/m 14,6 km/h (3 Bft) 93,48 %
24.08.2017 15:48 24,6 C 27,2 C 25,6 C 57 % 0 lf 1015,9 hPa 0,0 l/m 0 min 0 min 281 W/m 18,8 km/h (3 Bft) 97,87 %
24.08.2017 15:50 24,5 C 26,7 C 25,6 C 58 % 0 lf 1015,9 hPa 0,0 l/m 0 min 0 min 248 W/m 8,4 km/h (2 Bft) 97,87 %
24.08.2017 15:52 24,4 C 26,1 C 25,0 C 59 % 0 lf 1015,9 hPa 0,0 l/m 0 min 0 min 237 W/m 12,6 km/h (3 Bft) 97,37 %
24.08.2017 15:54 24,4 C 26,1 C 25,0 C 59 % 0 lf 1015,9 hPa 0,0 l/m 0 min 0 min 230 W/m 8,4 km/h (2 Bft) 97,87 %
24.08.2017 15:56 24,4 C 26,1 C 25,0 C 60 % 0 lf 1016,0 hPa 0,0 l/m 0 min 0 min 233 W/m 12,6 km/h (3 Bft) 95,74 %
24.08.2017 15:58 24,3 C 25,0 C 24,4 C 58 % 0 lf 1015,9 hPa 0,0 l/m 0 min 0 min 256 W/m 16,7 km/h (3 Bft) 97,87 %
24.08.2017 16:00 24,2 C 26,1 C 25,0 C 59 % 0 lf 1015,9 hPa 0,0 l/m 0 min 0 min 301 W/m 12,6 km/h (3 Bft) 100,00 %
24.08.2017 16:02 24,2 C 26,7 C 25,0 C 59 % 0 lf 1015,8 hPa 0,0 l/m 0 min 0 min 304 W/m 12,6 km/h (3 Bft) 97,87 %
24.08.2017 16:04 24,2 C 26,7 C 25,0 C 59 % 0 lf 1015,9 hPa 0,0 l/m 2 min 0 min 321 W/m 18,8 km/h (3 Bft) 93,62 %
24.08.2017 16:06 24,1 C 26,1 C 25,0 C 58 % 0 lf 1015,9 hPa 0,0 l/m 2 min 0 min 332 W/m 20,9 km/h (4 Bft) 95,74 %
24.08.2017 16:08 24,1 C 26,1 C 25,0 C 58 % 0 lf 1015,9 hPa 0,0 l/m 2 min 0 min 314 W/m 16,7 km/h (3 Bft) 93,62 %
24.08.2017 16:10 24,0 C 25,6 C 25,0 C 59 % 0 lf 1015,9 hPa 0,0 l/m 0 min 0 min 242 W/m 16,7 km/h (3 Bft) 93,62 %
24.08.2017 16:12 24,0 C 25,0 C 25,0 C 59 % 0 lf 1015,9 hPa 0,0 l/m 0 min 0 min 209 W/m 10,5 km/h (2 Bft) 95,65 %
24.08.2017 16:14 24,0 C 25,6 C 24,4 C 60 % 0 lf 1015,9 hPa 0,0 l/m 0 min 0 min 199 W/m 10,5 km/h (2 Bft) 95,74 %
24.08.2017 16:16 23,9 C 25,0 C 24,4 C 61 % 0 lf 1016,0 hPa 0,0 l/m 0 min 0 min 203 W/m 14,6 km/h (3 Bft) 95,74 %
24.08.2017 16:18 23,9 C 24,4 C 24,4 C 61 % 0 lf 1015,9 hPa 0,0 l/m 0 min 0 min 216 W/m 10,5 km/h (2 Bft) 95,74 %
24.08.2017 16:20 23,8 C 23,9 C 24,4 C 60 % 0 lf 1015,9 hPa 0,0 l/m 0 min 0 min 245 W/m 14,6 km/h (3 Bft) 91,49 %
24.08.2017 16:22 23,8 C 24,4 C 24,4 C 61 % 0 lf 1015,9 hPa 0,0 l/m 0 min 0 min 269 W/m 10,5 km/h (2 Bft) 95,74 %
24.08.2017 16:24 23,8 C 25,6 C 24,4 C 61 % 0 lf 1015,9 hPa 0,0 l/m 2 min 0 min 341 W/m 10,5 km/h (2 Bft) 95,65 %
24.08.2017 16:26 23,8 C 26,1 C 25,0 C 61 % 0 lf 1015,9 hPa 0,0 l/m 2 min 0 min 543 W/m 10,5 km/h (2 Bft) 95,83 %
24.08.2017 16:28 23,8 C 26,1 C 25,0 C 61 % 0 lf 1015,9 hPa 0,0 l/m 2 min 0 min 409 W/m 10,5 km/h (2 Bft) 97,87 %
24.08.2017 16:30 23,8 C 25,6 C 25,0 C 61 % 0 lf 1015,9 hPa 0,0 l/m 0 min 0 min 254 W/m 14,6 km/h (3 Bft) 97,87 %
24.08.2017 16:32 23,8 C 25,6 C 24,4 C 61 % 0 lf 1016,0 hPa 0,0 l/m 0 min 0 min 225 W/m 14,6 km/h (3 Bft) 97,87 %
24.08.2017 16:34 23,8 C 25,6 C 24,4 C 62 % 0 lf 1016,0 hPa 0,0 l/m 0 min 0 min 209 W/m 10,5 km/h (2 Bft) 95,74 %
24.08.2017 16:36 23,8 C 25,0 C 24,4 C 61 % 0 lf 1015,9 hPa 0,0 l/m 0 min 0 min 210 W/m 10,5 km/h (2 Bft) 95,65 %
24.08.2017 16:38 23,8 C 25,0 C 23,9 C 61 % 0 lf 1016,0 hPa 0,0 l/m 0 min 0 min 233 W/m 10,5 km/h (2 Bft) 95,74 %
24.08.2017 16:40 23,8 C 26,1 C 24,4 C 61 % 0 lf 1016,0 hPa 0,0 l/m 2 min 0 min 330 W/m 10,5 km/h (2 Bft) 97,87 %
24.08.2017 16:42 23,8 C 26,7 C 25,0 C 61 % 0 lf 1016,0 hPa 0,0 l/m 2 min 0 min 479 W/m 16,7 km/h (3 Bft) 97,87 %
24.08.2017 16:44 23,9 C 27,2 C 25,6 C 62 % 0 lf 1016,0 hPa 0,0 l/m 2 min 0 min 591 W/m 25,1 km/h (4 Bft) 95,74 %
24.08.2017 16:46 23,9 C 26,7 C 25,6 C 61 % 0 lf 1016,0 hPa 0,0 l/m 2 min 0 min 567 W/m 14,6 km/h (3 Bft) 97,83 %
24.08.2017 16:48 24,0 C 26,1 C 25,0 C 61 % 0 lf 1016,1 hPa 0,0 l/m 2 min 0 min 301 W/m 25,1 km/h (4 Bft) 95,74 %
24.08.2017 16:50 24,0 C 26,1 C 25,0 C 60 % 0 lf 1016,1 hPa 0,0 l/m 2 min 0 min 319 W/m 18,8 km/h (3 Bft) 97,87 %
24.08.2017 16:52 24,0 C 26,1 C 25,0 C 59 % 0 lf 1016,1 hPa 0,0 l/m 2 min 0 min 299 W/m 14,6 km/h (3 Bft) 100,00 %
24.08.2017 16:54 23,9 C 25,0 C 24,4 C 59 % 0 lf 1016,0 hPa 0,0 l/m 2 min 0 min 277 W/m 18,8 km/h (3 Bft) 100,00 %
24.08.2017 16:56 23,9 C 25,0 C 24,4 C 60 % 0 lf 1016,0 hPa 0,0 l/m 0 min 0 min 227 W/m 12,6 km/h (3 Bft) 95,74 %
24.08.2017 16:58 23,9 C 24,4 C 23,9 C 60 % 0 lf 1016,1 hPa 0,0 l/m 0 min 0 min 203 W/m 16,7 km/h (3 Bft) 95,65 %
24.08.2017 17:00 23,8 C 24,4 C 23,3 C 60 % 0 lf 1016,0 hPa 0,0 l/m 0 min 0 min 208 W/m 14,6 km/h (3 Bft) 97,87 %
24.08.2017 17:02 23,8 C 24,4 C 23,9 C 60 % 0 lf 1016,1 hPa 0,0 l/m 0 min 0 min 232 W/m 14,6 km/h (3 Bft) 95,74 %
24.08.2017 17:04 23,8 C 24,4 C 23,9 C 60 % 0 lf 1016,0 hPa 0,0 l/m 2 min 0 min 436 W/m 12,6 km/h (3 Bft) 95,74 %
24.08.2017 17:06 23,7 C 24,4 C 23,9 C 61 % 0 lf 1016,0 hPa 0,0 l/m 2 min 0 min 308 W/m 12,6 km/h (3 Bft) 97,87 %
24.08.2017 17:08 23,8 C 25,0 C 23,9 C 61 % 0 lf 1016,0 hPa 0,0 l/m 2 min 0 min 436 W/m 8,4 km/h (2 Bft) 97,87 %
24.08.2017 17:10 23,8 C 25,6 C 24,4 C 61 % 0 lf 1016,0 hPa 0,0 l/m 2 min 0 min 449 W/m 14,6 km/h (3 Bft) 97,83 %
24.08.2017 17:12 23,8 C 25,6 C 24,4 C 61 % 0 lf 1016,0 hPa 0,0 l/m 2 min 0 min 417 W/m 16,7 km/h (3 Bft) 95,74 %
24.08.2017 17:14 23,8 C 25,6 C 23,9 C 60 % 0 lf 1015,8 hPa 0,0 l/m 2 min 0 min 454 W/m 18,8 km/h (3 Bft) 97,87 %
24.08.2017 17:16 23,9 C 25,0 C 23,9 C 60 % 0 lf 1015,9 hPa 0,0 l/m 2 min 0 min 388 W/m 20,9 km/h (4 Bft) 97,87 %
24.08.2017 17:18 23,8 C 23,9 C 23,3 C 59 % 0 lf 1015,9 hPa 0,0 l/m 0 min 0 min 202 W/m 18,8 km/h (3 Bft) 93,62 %
24.08.2017 17:20 23,8 C 24,4 C 23,3 C 61 % 0 lf 1016,0 hPa 0,0 l/m 0 min 0 min 175 W/m 16,7 km/h (3 Bft) 97,87 %
24.08.2017 17:22 23,8 C 23,9 C 23,3 C 60 % 0 lf 1016,1 hPa 0,0 l/m 0 min 0 min 188 W/m 14,6 km/h (3 Bft) 97,83 %
24.08.2017 17:24 23,8 C 23,9 C 23,3 C 61 % 0 lf 1016,1 hPa 0,0 l/m 0 min 0 min 203 W/m 18,8 km/h (3 Bft) 95,74 %
24.08.2017 17:26 23,7 C 23,9 C 23,3 C 60 % 0 lf 1016,1 hPa 0,0 l/m 0 min 0 min 217 W/m 16,7 km/h (3 Bft) 95,74 %
24.08.2017 17:28 23,7 C 23,9 C 23,3 C 60 % 0 lf 1016,1 hPa 0,0 l/m 0 min 0 min 229 W/m 16,7 km/h (3 Bft) 97,87 %
24.08.2017 17:30 23,7 C 24,4 C 23,3 C 60 % 0 lf 1016,1 hPa 0,0 l/m 2 min 0 min 297 W/m 12,6 km/h (3 Bft) 97,87 %
24.08.2017 17:32 23,7 C 24,4 C 23,9 C 61 % 0 lf 1016,0 hPa 0,0 l/m 2 min 0 min 359 W/m 10,5 km/h (2 Bft) 97,87 %
24.08.2017 17:34 23,7 C 25,0 C 23,9 C 62 % 0 lf 1016,1 hPa 0,0 l/m 2 min 0 min 307 W/m 10,5 km/h (2 Bft) 97,83 %
24.08.2017 17:36 23,7 C 25,0 C 23,9 C 61 % 0 lf 1016,0 hPa 0,0 l/m 2 min 0 min 278 W/m 14,6 km/h (3 Bft) 97,87 %
24.08.2017 17:38 23,7 C 24,4 C 23,9 C 60 % 0 lf 1016,1 hPa 0,0 l/m 2 min 0 min 280 W/m 12,6 km/h (3 Bft) 97,87 %
24.08.2017 17:40 23,6 C 24,4 C 23,3 C 61 % 0 lf 1016,0 hPa 0,0 l/m 2 min 0 min 223 W/m 16,7 km/h (3 Bft) 95,74 %
24.08.2017 17:42 23,6 C 23,9 C 23,3 C 61 % 0 lf 1016,1 hPa 0,0 l/m 0 min 0 min 194 W/m 14,6 km/h (3 Bft) 97,87 %
24.08.2017 17:44 23,6 C 23,9 C 23,3 C 61 % 0 lf 1016,0 hPa 0,0 l/m 0 min 0 min 203 W/m 18,8 km/h (3 Bft) 95,65 %
24.08.2017 17:46 23,6 C 24,4 C 23,3 C 62 % 0 lf 1016,0 hPa 0,0 l/m 2 min 0 min 296 W/m 12,6 km/h (3 Bft) 95,74 %
24.08.2017 17:48 23,5 C 24,4 C 23,3 C 61 % 0 lf 1016,0 hPa 0,0 l/m 2 min 0 min 309 W/m 12,6 km/h (3 Bft) 93,62 %
24.08.2017 17:50 23,5 C 24,4 C 23,3 C 62 % 0 lf 1015,9 hPa 0,0 l/m 2 min 0 min 255 W/m 20,9 km/h (4 Bft) 100,00 %
24.08.2017 17:52 23,5 C 23,9 C 23,3 C 62 % 0 lf 1016,0 hPa 0,0 l/m 2 min 0 min 277 W/m 12,6 km/h (3 Bft) 100,00 %
24.08.2017 17:54 23,5 C 23,9 C 23,3 C 62 % 0 lf 1015,9 hPa 0,0 l/m 2 min 0 min 287 W/m 16,7 km/h (3 Bft) 96,55 %
24.08.2017 17:56 23,5 C 23,9 C 23,3 C 61 % 0 lf 1016,0 hPa 0,0 l/m 2 min 0 min 265 W/m 20,9 km/h (4 Bft) 97,87 %
24.08.2017 17:58 23,4 C 23,9 C 22,8 C 61 % 0 lf 1016,0 hPa 0,0 l/m 2 min 0 min 267 W/m 14,6 km/h (3 Bft) 97,87 %
24.08.2017 18:00 23,4 C 23,3 C 22,8 C 60 % 0 lf 1016,1 hPa 0,0 l/m 2 min 0 min 304 W/m 20,9 km/h (4 Bft) 97,87 %
24.08.2017 18:02 23,4 C 23,3 C 22,8 C 61 % 0 lf 1016,0 hPa 0,0 l/m 2 min 0 min 295 W/m 16,7 km/h (3 Bft) 94,29 %
24.08.2017 18:04 23,4 C 23,9 C 22,8 C 61 % 0 lf 1016,1 hPa 0,0 l/m 2 min 0 min 265 W/m 12,6 km/h (3 Bft) 96,61 %
24.08.2017 18:08 23,3 C 23,9 C 22,8 C 61 % 0 lf 1016,1 hPa 0,0 l/m 4 min 0 min 233 W/m 14,6 km/h (3 Bft) 93,98 %
24.08.2017 18:10 23,3 C 23,3 C 22,8 C 61 % 0 lf 1016,1 hPa 0,0 l/m 2 min 0 min 210 W/m 16,7 km/h (3 Bft) 95,74 %
24.08.2017 18:12 23,3 C 23,3 C 22,2 C 62 % 0 lf 1016,1 hPa 0,0 l/m 2 min 0 min 194 W/m 16,7 km/h (3 Bft) 93,62 %
24.08.2017 18:14 23,2 C 23,3 C 22,2 C 61 % 0 lf 1016,0 hPa 0,0 l/m 2 min 0 min 183 W/m 20,9 km/h (4 Bft) 95,74 %
24.08.2017 18:16 23,2 C 23,3 C 22,2 C 62 % 0 lf 1016,1 hPa 0,0 l/m 2 min 0 min 188 W/m 8,4 km/h (2 Bft) 95,74 %
24.08.2017 18:18 23,2 C 23,3 C 22,2 C 63 % 0 lf 1016,1 hPa 0,0 l/m 2 min 0 min 185 W/m 12,6 km/h (3 Bft) 95,74 %
24.08.2017 18:20 23,2 C 23,3 C 22,2 C 62 % 0 lf 1016,2 hPa 0,0 l/m 2 min 0 min 173 W/m 14,6 km/h (3 Bft) 93,62 %
24.08.2017 18:22 23,2 C 23,3 C 22,2 C 63 % 0 lf 1016,1 hPa 0,0 l/m 0 min 0 min 156 W/m 10,5 km/h (2 Bft) 95,65 %
24.08.2017 18:24 23,1 C 23,3 C 22,2 C 63 % 0 lf 1016,1 hPa 0,0 l/m 0 min 0 min 154 W/m 8,4 km/h (2 Bft) 91,49 %
24.08.2017 18:26 23,1 C 23,3 C 22,2 C 63 % 0 lf 1016,1 hPa 0,0 l/m 2 min 0 min 163 W/m 10,5 km/h (2 Bft) 93,62 %
24.08.2017 18:28 23,1 C 23,3 C 22,2 C 63 % 0 lf 1016,0 hPa 0,0 l/m 2 min 0 min 181 W/m 8,4 km/h (2 Bft) 93,62 %
24.08.2017 18:30 23,1 C 23,3 C 22,2 C 64 % 0 lf 1016,1 hPa 0,0 l/m 2 min 0 min 158 W/m 10,5 km/h (2 Bft) 91,49 %
24.08.2017 18:32 23,1 C 23,3 C 22,2 C 64 % 0 lf 1016,0 hPa 0,0 l/m 0 min 0 min 148 W/m 10,5 km/h (2 Bft) 97,83 %
24.08.2017 18:34 23,0 C 23,3 C 22,2 C 63 % 0 lf 1016,0 hPa 0,0 l/m 0 min 0 min 147 W/m 12,6 km/h (3 Bft) 97,87 %
24.08.2017 18:36 23,0 C 22,8 C 21,7 C 63 % 0 lf 1016,0 hPa 0,0 l/m 0 min 0 min 143 W/m 14,6 km/h (3 Bft) 95,74 %
24.08.2017 18:38 22,9 C 22,8 C 21,7 C 63 % 0 lf 1015,9 hPa 0,0 l/m 0 min 0 min 136 W/m 14,6 km/h (3 Bft) 95,74 %
24.08.2017 18:40 22,9 C 22,8 C 21,7 C 63 % 0 lf 1015,9 hPa 0,0 l/m 0 min 0 min 130 W/m 16,7 km/h (3 Bft) 95,74 %
24.08.2017 18:42 22,8 C 22,8 C 21,7 C 63 % 0 lf 1015,9 hPa 0,0 l/m 0 min 0 min 127 W/m 12,6 km/h (3 Bft) 93,62 %
24.08.2017 18:44 22,8 C 22,8 C 21,7 C 63 % 0 lf 1016,0 hPa 0,0 l/m 0 min 0 min 123 W/m 12,6 km/h (3 Bft) 95,65 %
24.08.2017 18:46 22,8 C 22,8 C 21,7 C 63 % 0 lf 1016,0 hPa 0,0 l/m 0 min 0 min 120 W/m 8,4 km/h (2 Bft) 95,74 %
24.08.2017 18:48 22,8 C 22,8 C 21,7 C 63 % 0 lf 1016,0 hPa 0,0 l/m 0 min 0 min 132 W/m 14,6 km/h (3 Bft) 93,62 %
24.08.2017 18:50 22,7 C 22,8 C 21,7 C 63 % 0 lf 1016,1 hPa 0,0 l/m 2 min 0 min 146 W/m 16,7 km/h (3 Bft) 95,74 %
24.08.2017 18:52 22,7 C 22,8 C 21,7 C 63 % 0 lf 1016,0 hPa 0,0 l/m 2 min 0 min 133 W/m 14,6 km/h (3 Bft) 95,74 %
24.08.2017 18:54 22,7 C 22,8 C 21,7 C 63 % 0 lf 1016,1 hPa 0,0 l/m 2 min 0 min 133 W/m 10,5 km/h (2 Bft) 95,74 %
24.08.2017 18:56 22,7 C 22,8 C 21,7 C 63 % 0 lf 1016,0 hPa 0,0 l/m 2 min 0 min 140 W/m 10,5 km/h (2 Bft) 93,48 %
24.08.2017 18:58 22,7 C 22,8 C 21,7 C 63 % 0 lf 1016,0 hPa 0,0 l/m 2 min 0 min 143 W/m 10,5 km/h (2 Bft) 95,74 %
24.08.2017 19:00 22,6 C 22,8 C 21,7 C 64 % 0 lf 1016,0 hPa 0,0 l/m 2 min 0 min 141 W/m 10,5 km/h (2 Bft) 93,62 %
24.08.2017 19:02 22,6 C 22,8 C 21,7 C 63 % 0 lf 1016,0 hPa 0,0 l/m 2 min 0 min 130 W/m 12,6 km/h (3 Bft) 95,74 %
24.08.2017 19:04 22,6 C 22,8 C 21,7 C 64 % 0 lf 1016,0 hPa 0,0 l/m 0 min 0 min 111 W/m 8,4 km/h (2 Bft) 97,87 %
24.08.2017 19:06 22,6 C 22,8 C 21,7 C 64 % 0 lf 1016,0 hPa 0,0 l/m 0 min 0 min 103 W/m 8,4 km/h (2 Bft) 93,62 %
24.08.2017 19:08 22,6 C 22,8 C 21,7 C 63 % 0 lf 1016,0 hPa 0,0 l/m 0 min 0 min 101 W/m 10,5 km/h (2 Bft) 97,83 %
24.08.2017 19:10 22,6 C 22,8 C 21,7 C 64 % 0 lf 1016,0 hPa 0,0 l/m 0 min 0 min 95 W/m 10,5 km/h (2 Bft) 97,87 %
24.08.2017 19:12 22,6 C 22,8 C 21,7 C 64 % 0 lf 1016,0 hPa 0,0 l/m 0 min 0 min 86 W/m 6,3 km/h (2 Bft) 97,87 %
24.08.2017 19:14 22,6 C 22,8 C 21,7 C 64 % 0 lf 1016,0 hPa 0,0 l/m 0 min 0 min 83 W/m 8,4 km/h (2 Bft) 93,62 %
24.08.2017 19:16 22,6 C 22,2 C 21,1 C 63 % 0 lf 1016,0 hPa 0,0 l/m 0 min 0 min 76 W/m 8,4 km/h (2 Bft) 95,74 %
24.08.2017 19:18 22,6 C 22,2 C 21,1 C 64 % 0 lf 1016,1 hPa 0,0 l/m 0 min 0 min 72 W/m 10,5 km/h (2 Bft) 97,83 %
24.08.2017 19:20 22,5 C 22,2 C 21,1 C 64 % 0 lf 1016,1 hPa 0,0 l/m 0 min 0 min 67 W/m 6,3 km/h (2 Bft) 95,74 %
24.08.2017 19:22 22,5 C 22,2 C 21,1 C 64 % 0 lf 1016,1 hPa 0,0 l/m 0 min 0 min 64 W/m 4,2 km/h (1 Bft) 97,87 %
24.08.2017 19:24 22,5 C 22,2 C 21,1 C 64 % 0 lf 1016,1 hPa 0,0 l/m 0 min 0 min 64 W/m 10,5 km/h (2 Bft) 97,87 %
24.08.2017 19:26 22,4 C 22,2 C 21,1 C 64 % 0 lf 1016,0 hPa 0,0 l/m 0 min 0 min 63 W/m 14,6 km/h (3 Bft) 100,00 %
24.08.2017 19:28 22,4 C 22,2 C 20,6 C 64 % 0 lf 1015,9 hPa 0,0 l/m 0 min 0 min 62 W/m 10,5 km/h (2 Bft) 97,87 %
24.08.2017 19:30 22,4 C 21,7 C 20,6 C 64 % 0 lf 1015,9 hPa 0,0 l/m 0 min 0 min 60 W/m 18,8 km/h (3 Bft) 100,00 %
24.08.2017 19:32 22,4 C 21,7 C 20,6 C 64 % 0 lf 1015,9 hPa 0,0 l/m 0 min 0 min 59 W/m 10,5 km/h (2 Bft) 97,83 %
24.08.2017 19:35 22,3 C 21,7 C 20,6 C 64 % 0 lf 1016,0 hPa 0,0 l/m 0 min 0 min 53 W/m 14,6 km/h (3 Bft) 97,83 %
24.08.2017 19:38 22,2 C 21,7 C 20,6 C 64 % 0 lf 1016,1 hPa 0,0 l/m 0 min 0 min 53 W/m 14,6 km/h (3 Bft) 100,00 %
24.08.2017 19:40 22,2 C 21,7 C 20,0 C 64 % 0 lf 1016,0 hPa 0,0 l/m 0 min 0 min 50 W/m 8,4 km/h (2 Bft) 100,00 %
24.08.2017 19:42 22,2 C 21,1 C 20,0 C 64 % 0 lf 1016,0 hPa 0,0 l/m 0 min 0 min 48 W/m 8,4 km/h (2 Bft) 100,00 %
24.08.2017 19:44 22,2 C 21,1 C 20,0 C 64 % 0 lf 1016,0 hPa 0,0 l/m 0 min 0 min 45 W/m 6,3 km/h (2 Bft) 100,00 %
24.08.2017 19:46 22,1 C 21,1 C 20,0 C 64 % 0 lf 1016,1 hPa 0,0 l/m 0 min 0 min 41 W/m 12,6 km/h (3 Bft) 100,00 %
24.08.2017 19:48 22,1 C 21,1 C 20,0 C 64 % 0 lf 1016,0 hPa 0,0 l/m 0 min 0 min 40 W/m 8,4 km/h (2 Bft) 100,00 %
24.08.2017 19:50 22,1 C 21,1 C 19,4 C 64 % 0 lf 1016,0 hPa 0,0 l/m 0 min 0 min 39 W/m 10,5 km/h (2 Bft) 100,00 %
24.08.2017 19:52 22,0 C 21,1 C 19,4 C 64 % 0 lf 1016,0 hPa 0,0 l/m 0 min 0 min 38 W/m 6,3 km/h (2 Bft) 97,87 %
24.08.2017 19:54 21,9 C 21,1 C 19,4 C 64 % 0 lf 1016,1 hPa 0,0 l/m 0 min 0 min 34 W/m 6,3 km/h (2 Bft) 100,00 %
24.08.2017 19:56 21,9 C 20,6 C 19,4 C 65 % 0 lf 1016,0 hPa 0,0 l/m 0 min 0 min 30 W/m 6,3 km/h (2 Bft) 100,00 %
24.08.2017 19:58 21,9 C 20,6 C 19,4 C 65 % 0 lf 1016,0 hPa 0,0 l/m 0 min 0 min 28 W/m 4,2 km/h (1 Bft) 97,87 %
24.08.2017 20:00 21,9 C 20,6 C 19,4 C 65 % 0 lf 1016,1 hPa 0,0 l/m 0 min 0 min 27 W/m 6,3 km/h (2 Bft) 100,00 %
24.08.2017 20:02 21,8 C 20,6 C 18,9 C 65 % 0 lf 1016,0 hPa 0,0 l/m 0 min 0 min 26 W/m 6,3 km/h (2 Bft) 97,87 %
24.08.2017 20:04 21,8 C 20,6 C 18,9 C 65 % 0 lf 1016,1 hPa 0,0 l/m 0 min 0 min 24 W/m 6,3 km/h (2 Bft) 97,87 %
24.08.2017 20:06 21,8 C 20,6 C 18,9 C 66 % 0 lf 1016,1 hPa 0,0 l/m 0 min 0 min 23 W/m 4,2 km/h (1 Bft) 95,65 %
24.08.2017 20:08 21,7 C 20,6 C 18,9 C 66 % 0 lf 1016,1 hPa 0,0 l/m 0 min 0 min 22 W/m 4,2 km/h (1 Bft) 97,87 %
24.08.2017 20:10 21,7 C 20,6 C 18,9 C 66 % 0 lf 1016,1 hPa 0,0 l/m 0 min 0 min 21 W/m 4,2 km/h (1 Bft) 95,74 %
24.08.2017 20:12 21,7 C 20,6 C 18,9 C 66 % 0 lf 1016,1 hPa 0,0 l/m 0 min 0 min 21 W/m 6,3 km/h (2 Bft) 95,74 %
24.08.2017 20:14 21,7 C 20,6 C 18,9 C 66 % 0 lf 1016,1 hPa 0,0 l/m 0 min 0 min 20 W/m 6,3 km/h (2 Bft) 95,74 %
24.08.2017 20:16 21,6 C 20,6 C 18,9 C 66 % 0 lf 1016,1 hPa 0,0 l/m 0 min 0 min 18 W/m 6,3 km/h (2 Bft) 93,62 %
24.08.2017 20:18 21,6 C 20,6 C 18,9 C 66 % 0 lf 1016,1 hPa 0,0 l/m 0 min 0 min 16 W/m 4,2 km/h (1 Bft) 95,65 %
24.08.2017 20:20 21,6 C 20,0 C 18,9 C 67 % 0 lf 1016,1 hPa 0,0 l/m 0 min 0 min 13 W/m 4,2 km/h (1 Bft) 95,74 %
24.08.2017 20:22 21,5 C 20,0 C 18,9 C 67 % 0 lf 1016,1 hPa 0,0 l/m 0 min 0 min 12 W/m 2,1 km/h (1 Bft) 95,74 %
24.08.2017 20:24 21,4 C 20,0 C 18,3 C 67 % 0 lf 1016,1 hPa 0,0 l/m 0 min 0 min 11 W/m 4,2 km/h (1 Bft) 93,62 %
24.08.2017 20:26 21,4 C 20,0 C 18,3 C 67 % 0 lf 1016,1 hPa 0,0 l/m 0 min 0 min 8 W/m 4,2 km/h (1 Bft) 93,62 %
24.08.2017 20:28 21,4 C 20,0 C 18,3 C 67 % 0 lf 1016,1 hPa 0,0 l/m 0 min 0 min 7 W/m 4,2 km/h (1 Bft) 95,74 %
24.08.2017 20:30 21,4 C 20,0 C 18,3 C 67 % 0 lf 1016,1 hPa 0,0 l/m 0 min 0 min 6 W/m 4,2 km/h (1 Bft) 95,65 %
24.08.2017 20:32 21,3 C 20,0 C 18,3 C 68 % 0 lf 1016,1 hPa 0,0 l/m 0 min 0 min 5 W/m 4,2 km/h (1 Bft) 95,74 %
24.08.2017 20:34 21,3 C 20,0 C 18,3 C 68 % 0 lf 1016,1 hPa 0,0 l/m 0 min 0 min 0 W/m 4,2 km/h (1 Bft) 95,74 %
24.08.2017 20:36 21,3 C 20,0 C 18,3 C 68 % 0 lf 1016,0 hPa 0,0 l/m 0 min 0 min 0 W/m 4,2 km/h (1 Bft) 95,74 %
24.08.2017 20:38 21,2 C 19,4 C 18,3 C 68 % 0 lf 1016,1 hPa 0,0 l/m 0 min 0 min 0 W/m 4,2 km/h (1 Bft) 97,87 %
24.08.2017 20:40 21,2 C 19,4 C 18,3 C 69 % 0 lf 1016,1 hPa 0,0 l/m 0 min 0 min 0 W/m 4,2 km/h (1 Bft) 95,74 %
24.08.2017 20:42 21,2 C 19,4 C 18,3 C 69 % 0 lf 1016,1 hPa 0,0 l/m 0 min 0 min 0 W/m 2,1 km/h (1 Bft) 97,83 %
24.08.2017 20:44 21,1 C 19,4 C 18,3 C 69 % 0 lf 1016,2 hPa 0,0 l/m 0 min 0 min 0 W/m 4,2 km/h (1 Bft) 97,87 %
24.08.2017 20:46 21,1 C 19,4 C 18,3 C 69 % 0 lf 1016,2 hPa 0,0 l/m 0 min 0 min 0 W/m 4,2 km/h (1 Bft) 95,74 %
24.08.2017 20:48 21,1 C 19,4 C 18,3 C 70 % 0 lf 1016,1 hPa 0,0 l/m 0 min 0 min 0 W/m 4,2 km/h (1 Bft) 97,87 %
24.08.2017 20:50 21,0 C 19,4 C 18,3 C 70 % 0 lf 1016,2 hPa 0,0 l/m 0 min 0 min 0 W/m 4,2 km/h (1 Bft) 93,62 %
24.08.2017 20:52 21,0 C 20,0 C 18,3 C 70 % 0 lf 1016,2 hPa 0,0 l/m 0 min 0 min 0 W/m 4,2 km/h (1 Bft) 97,87 %
24.08.2017 20:54 20,9 C 19,4 C 18,3 C 70 % 0 lf 1016,2 hPa 0,0 l/m 0 min 0 min 0 W/m 4,2 km/h (1 Bft) 97,83 %
24.08.2017 20:56 20,9 C 19,4 C 18,3 C 70 % 0 lf 1016,2 hPa 0,0 l/m 0 min 0 min 0 W/m 4,2 km/h (1 Bft) 97,87 %
24.08.2017 20:58 20,9 C 19,4 C 18,3 C 70 % 0 lf 1016,3 hPa 0,0 l/m 0 min 0 min 0 W/m 4,2 km/h (1 Bft) 97,87 %
24.08.2017 21:00 20,8 C 19,4 C 18,3 C 70 % 0 lf 1016,3 hPa 0,0 l/m 0 min 0 min 0 W/m 2,1 km/h (1 Bft) 97,87 %
24.08.2017 21:02 20,8 C 19,4 C 18,3 C 70 % 0 lf 1016,4 hPa 0,0 l/m 0 min 0 min 0 W/m 2,1 km/h (1 Bft) 95,74 %
24.08.2017 21:04 20,8 C 19,4 C 18,3 C 70 % 0 lf 1016,3 hPa 0,0 l/m 0 min 0 min 0 W/m 2,1 km/h (1 Bft) 97,87 %
24.08.2017 21:06 20,8 C 19,4 C 18,3 C 70 % 0 lf 1016,5 hPa 0,0 l/m 0 min 0 min 0 W/m 4,2 km/h (1 Bft) 97,83 %
24.08.2017 21:08 20,7 C 19,4 C 18,3 C 70 % 0 lf 1016,5 hPa 0,0 l/m 0 min 0 min 0 W/m 6,3 km/h (2 Bft) 97,87 %
24.08.2017 21:10 20,7 C 19,4 C 18,3 C 70 % 0 lf 1016,5 hPa 0,0 l/m 0 min 0 min 0 W/m 4,2 km/h (1 Bft) 97,87 %
24.08.2017 21:12 20,7 C 18,9 C 17,8 C 71 % 0 lf 1016,5 hPa 0,0 l/m 0 min 0 min 0 W/m 4,2 km/h (1 Bft) 97,87 %
24.08.2017 21:14 20,7 C 18,9 C 17,8 C 71 % 0 lf 1016,5 hPa 0,0 l/m 0 min 0 min 0 W/m 12,6 km/h (3 Bft) 100,00 %
24.08.2017 21:16 20,6 C 19,4 C 17,8 C 72 % 0 lf 1016,6 hPa 0,0 l/m 0 min 0 min 0 W/m 12,6 km/h (3 Bft) 95,65 %
24.08.2017 21:18 20,6 C 19,4 C 17,8 C 72 % 0 lf 1016,6 hPa 0,0 l/m 0 min 0 min 0 W/m 10,5 km/h (2 Bft) 91,49 %
24.08.2017 21:20 20,5 C 19,4 C 17,8 C 73 % 0 lf 1016,6 hPa 0,0 l/m 0 min 0 min 0 W/m 8,4 km/h (2 Bft) 93,62 %
24.08.2017 21:22 20,5 C 19,4 C 17,8 C 73 % 0 lf 1016,6 hPa 0,0 l/m 0 min 0 min 0 W/m 8,4 km/h (2 Bft) 95,74 %
24.08.2017 21:24 20,4 C 18,9 C 17,8 C 73 % 0 lf 1016,6 hPa 0,0 l/m 0 min 0 min 0 W/m 12,6 km/h (3 Bft) 95,74 %
24.08.2017 21:26 20,4 C 18,9 C 17,8 C 74 % 0 lf 1016,6 hPa 0,0 l/m 0 min 0 min 0 W/m 8,4 km/h (2 Bft) 95,74 %
24.08.2017 21:28 20,4 C 18,9 C 17,8 C 74 % 0 lf 1016,7 hPa 0,0 l/m 0 min 0 min 0 W/m 8,4 km/h (2 Bft) 95,65 %
24.08.2017 21:30 20,3 C 18,9 C 17,8 C 74 % 0 lf 1016,6 hPa 0,0 l/m 0 min 0 min 0 W/m 12,6 km/h (3 Bft) 93,62 %
24.08.2017 21:32 20,3 C 18,9 C 17,8 C 74 % 0 lf 1016,6 hPa 0,0 l/m 0 min 0 min 0 W/m 8,4 km/h (2 Bft) 93,62 %
24.08.2017 21:34 20,3 C 18,9 C 17,8 C 74 % 0 lf 1016,6 hPa 0,0 l/m 0 min 0 min 0 W/m 10,5 km/h (2 Bft) 93,62 %
24.08.2017 21:36 20,2 C 18,9 C 17,8 C 75 % 0 lf 1016,7 hPa 0,0 l/m 0 min 0 min 0 W/m 12,6 km/h (3 Bft) 95,74 %
24.08.2017 21:38 20,2 C 18,9 C 17,8 C 75 % 0 lf 1016,8 hPa 0,0 l/m 0 min 0 min 0 W/m 8,4 km/h (2 Bft) 95,74 %
24.08.2017 21:40 20,2 C 18,9 C 17,8 C 75 % 0 lf 1016,8 hPa 0,0 l/m 0 min 0 min 0 W/m 10,5 km/h (2 Bft) 95,65 %
24.08.2017 21:42 20,1 C 18,9 C 17,8 C 75 % 0 lf 1016,8 hPa 0,0 l/m 0 min 0 min 0 W/m 10,5 km/h (2 Bft) 95,74 %
24.08.2017 21:44 20,1 C 18,9 C 17,8 C 75 % 0 lf 1016,8 hPa 0,0 l/m 0 min 0 min 0 W/m 10,5 km/h (2 Bft) 95,74 %
24.08.2017 21:46 20,0 C 18,9 C 17,8 C 75 % 0 lf 1016,9 hPa 0,0 l/m 0 min 0 min 0 W/m 10,5 km/h (2 Bft) 93,62 %
24.08.2017 21:48 19,9 C 18,9 C 17,8 C 75 % 0 lf 1016,9 hPa 0,0 l/m 0 min 0 min 0 W/m 10,5 km/h (2 Bft) 93,62 %
24.08.2017 21:50 19,9 C 18,9 C 17,8 C 75 % 0 lf 1017,0 hPa 0,0 l/m 0 min 0 min 0 W/m 10,5 km/h (2 Bft) 89,36 %
24.08.2017 21:52 19,9 C 18,9 C 17,2 C 75 % 0 lf 1017,0 hPa 0,0 l/m 0 min 0 min 0 W/m 10,5 km/h (2 Bft) 95,65 %
24.08.2017 21:54 19,8 C 18,3 C 17,2 C 76 % 0 lf 1017,0 hPa 0,0 l/m 0 min 0 min 0 W/m 8,4 km/h (2 Bft) 95,74 %
24.08.2017 21:56 19,8 C 18,3 C 17,2 C 76 % 0 lf 1017,0 hPa 0,0 l/m 0 min 0 min 0 W/m 8,4 km/h (2 Bft) 95,74 %
24.08.2017 21:58 19,7 C 18,3 C 17,2 C 76 % 0 lf 1017,1 hPa 0,0 l/m 0 min 0 min 0 W/m 6,3 km/h (2 Bft) 93,62 %
24.08.2017 22:00 19,7 C 18,3 C 17,2 C 76 % 0 lf 1017,1 hPa 0,0 l/m 0 min 0 min 0 W/m 12,6 km/h (3 Bft) 93,62 %
24.08.2017 22:02 19,7 C 18,3 C 17,2 C 76 % 0 lf 1017,0 hPa 0,0 l/m 0 min 0 min 0 W/m 10,5 km/h (2 Bft) 93,62 %
24.08.2017 22:04 19,6 C 18,3 C 16,7 C 76 % 0 lf 1017,1 hPa 0,0 l/m 0 min 0 min 0 W/m 6,3 km/h (2 Bft) 93,48 %
24.08.2017 22:05 19,6 C 18,3 C 16,7 C 76 % 0 lf 1017,2 hPa 0,0 l/m 0 min 0 min 0 W/m 10,5 km/h (2 Bft) 93,86 %
24.08.2017 22:12 19,4 C 17,8 C 16,7 C 76 % 0 lf 1017,2 hPa 0,0 l/m 0 min 0 min 0 W/m 8,4 km/h (2 Bft) 96,77 %
24.08.2017 22:14 19,4 C 17,8 C 16,7 C 76 % 0 lf 1017,2 hPa 0,0 l/m 0 min 0 min 0 W/m 8,4 km/h (2 Bft) 95,74 %
24.08.2017 22:16 19,3 C 17,8 C 16,7 C 76 % 0 lf 1017,2 hPa 0,0 l/m 0 min 0 min 0 W/m 8,4 km/h (2 Bft) 100,00 %
24.08.2017 22:18 19,3 C 17,8 C 16,7 C 76 % 0 lf 1017,2 hPa 0,0 l/m 0 min 0 min 0 W/m 6,3 km/h (2 Bft) 95,74 %
24.08.2017 22:20 19,3 C 17,8 C 16,1 C 76 % 0 lf 1017,2 hPa 0,0 l/m 0 min 0 min 0 W/m 8,4 km/h (2 Bft) 97,87 %
24.08.2017 22:22 19,2 C 17,8 C 16,1 C 77 % 0 lf 1017,2 hPa 0,0 l/m 0 min 0 min 0 W/m 8,4 km/h (2 Bft) 95,74 %
24.08.2017 22:24 19,2 C 17,2 C 16,1 C 77 % 0 lf 1017,2 hPa 0,0 l/m 0 min 0 min 0 W/m 8,4 km/h (2 Bft) 97,87 %
24.08.2017 22:26 19,2 C 17,2 C 16,1 C 77 % 0 lf 1017,2 hPa 0,0 l/m 0 min 0 min 0 W/m 6,3 km/h (2 Bft) 95,74 %
24.08.2017 22:28 19,1 C 17,2 C 16,1 C 77 % 0 lf 1017,2 hPa 0,0 l/m 0 min 0 min 0 W/m 8,4 km/h (2 Bft) 97,87 %
24.08.2017 22:30 19,1 C 17,2 C 16,1 C 77 % 0 lf 1017,2 hPa 0,0 l/m 0 min 0 min 0 W/m 10,5 km/h (2 Bft) 100,00 %
24.08.2017 22:32 19,1 C 17,2 C 16,1 C 77 % 0 lf 1017,2 hPa 0,0 l/m 0 min 0 min 0 W/m 8,4 km/h (2 Bft) 97,87 %
24.08.2017 22:34 19,0 C 17,2 C 15,6 C 77 % 0 lf 1017,3 hPa 0,0 l/m 0 min 0 min 0 W/m 6,3 km/h (2 Bft) 97,87 %
24.08.2017 22:36 18,9 C 17,2 C 15,6 C 77 % 0 lf 1017,2 hPa 0,0 l/m 0 min 0 min 0 W/m 8,4 km/h (2 Bft) 97,87 %
24.08.2017 22:38 18,9 C 17,2 C 15,6 C 77 % 0 lf 1017,2 hPa 0,0 l/m 0 min 0 min 0 W/m 6,3 km/h (2 Bft) 97,87 %
24.08.2017 22:40 18,8 C 16,7 C 15,6 C 77 % 0 lf 1017,2 hPa 0,0 l/m 0 min 0 min 0 W/m 8,4 km/h (2 Bft) 97,87 %
24.08.2017 22:42 18,8 C 16,7 C 15,6 C 77 % 0 lf 1017,3 hPa 0,0 l/m 0 min 0 min 0 W/m 6,3 km/h (2 Bft) 100,00 %
24.08.2017 22:44 18,8 C 16,7 C 15,6 C 77 % 0 lf 1017,3 hPa 0,0 l/m 0 min 0 min 0 W/m 6,3 km/h (2 Bft) 95,74 %
24.08.2017 22:46 18,7 C 16,7 C 15,6 C 77 % 0 lf 1017,2 hPa 0,0 l/m 0 min 0 min 0 W/m 6,3 km/h (2 Bft) 100,00 %
24.08.2017 22:48 18,7 C 16,7 C 15,6 C 78 % 0 lf 1017,2 hPa 0,0 l/m 0 min 0 min 0 W/m 6,3 km/h (2 Bft) 100,00 %
24.08.2017 22:50 18,6 C 16,7 C 15,6 C 78 % 0 lf 1017,3 hPa 0,0 l/m 0 min 0 min 0 W/m 2,1 km/h (1 Bft) 97,87 %
24.08.2017 22:52 18,6 C 16,7 C 15,6 C 77 % 0 lf 1017,2 hPa 0,0 l/m 0 min 0 min 0 W/m 4,2 km/h (1 Bft) 97,83 %
24.08.2017 22:54 18,6 C 16,7 C 15,0 C 77 % 0 lf 1017,3 hPa 0,0 l/m 0 min 0 min 0 W/m 6,3 km/h (2 Bft) 100,00 %
24.08.2017 22:56 18,5 C 16,7 C 15,0 C 77 % 0 lf 1017,3 hPa 0,0 l/m 0 min 0 min 0 W/m 6,3 km/h (2 Bft) 100,00 %
24.08.2017 22:58 18,4 C 16,7 C 15,0 C 78 % 0 lf 1017,3 hPa 0,0 l/m 0 min 0 min 0 W/m 6,3 km/h (2 Bft) 100,00 %
24.08.2017 23:00 18,4 C 16,1 C 15,0 C 78 % 0 lf 1017,3 hPa 0,0 l/m 0 min 0 min 0 W/m 4,2 km/h (1 Bft) 97,87 %
24.08.2017 23:02 18,4 C 16,1 C 15,0 C 78 % 0 lf 1017,4 hPa 0,0 l/m 0 min 0 min 0 W/m 4,2 km/h (1 Bft) 100,00 %
24.08.2017 23:04 18,3 C 16,1 C 15,0 C 78 % 0 lf 1017,3 hPa 0,0 l/m 0 min 0 min 0 W/m 4,2 km/h (1 Bft) 100,00 %
24.08.2017 23:06 18,3 C 16,1 C 14,4 C 78 % 0 lf 1017,3 hPa 0,0 l/m 0 min 0 min 0 W/m 6,3 km/h (2 Bft) 97,87 %
24.08.2017 23:08 18,2 C 16,1 C 14,4 C 78 % 0 lf 1017,3 hPa 0,0 l/m 0 min 0 min 0 W/m 4,2 km/h (1 Bft) 97,87 %
24.08.2017 23:10 18,2 C 16,1 C 14,4 C 78 % 0 lf 1017,3 hPa 0,0 l/m 0 min 0 min 0 W/m 0,0 km/h (0 Bft) 100,00 %
24.08.2017 23:12 18,2 C 15,6 C 14,4 C 78 % 0 lf 1017,3 hPa 0,0 l/m 0 min 0 min 0 W/m 0,0 km/h (0 Bft) 97,87 %
24.08.2017 23:14 18,1 C 15,6 C 14,4 C 78 % 0 lf 1017,4 hPa 0,0 l/m 0 min 0 min 0 W/m 0,0 km/h (0 Bft) 97,87 %
24.08.2017 23:16 18,1 C 15,6 C 14,4 C 78 % 0 lf 1017,4 hPa 0,0 l/m 0 min 0 min 0 W/m 0,0 km/h (0 Bft) 100,00 %
24.08.2017 23:18 18,0 C 15,6 C 14,4 C 78 % 0 lf 1017,4 hPa 0,0 l/m 0 min 0 min 0 W/m 0,0 km/h (0 Bft) 100,00 %
24.08.2017 23:20 17,9 C 15,6 C 14,4 C 78 % 0 lf 1017,4 hPa 0,0 l/m 0 min 0 min 1 W/m 0,0 km/h (0 Bft) 97,87 %
24.08.2017 23:22 17,9 C 15,6 C 13,9 C 78 % 0 lf 1017,3 hPa 0,0 l/m 0 min 0 min 0 W/m 0,0 km/h (0 Bft) 97,87 %
24.08.2017 23:24 17,8 C 15,6 C 13,9 C 78 % 0 lf 1017,3 hPa 0,0 l/m 0 min 0 min 0 W/m 0,0 km/h (0 Bft) 100,00 %
24.08.2017 23:26 17,8 C 15,6 C 13,9 C 79 % 0 lf 1017,3 hPa 0,0 l/m 0 min 0 min 0 W/m 0,0 km/h (0 Bft) 97,87 %
24.08.2017 23:28 17,8 C 15,6 C 13,9 C 79 % 0 lf 1017,3 hPa 0,0 l/m 0 min 0 min 0 W/m 0,0 km/h (0 Bft) 100,00 %
24.08.2017 23:30 17,7 C 15,6 C 13,9 C 79 % 0 lf 1017,3 hPa 0,0 l/m 0 min 0 min 5 W/m 0,0 km/h (0 Bft) 100,00 %
24.08.2017 23:32 17,7 C 15,6 C 13,9 C 79 % 0 lf 1017,3 hPa 0,0 l/m 0 min 0 min 5 W/m 0,0 km/h (0 Bft) 100,00 %
24.08.2017 23:34 17,6 C 15,6 C 13,9 C 79 % 0 lf 1017,3 hPa 0,0 l/m 0 min 0 min 5 W/m 0,0 km/h (0 Bft) 97,87 %
24.08.2017 23:36 17,6 C 15,0 C 13,9 C 79 % 0 lf 1017,3 hPa 0,0 l/m 0 min 0 min 5 W/m 0,0 km/h (0 Bft) 100,00 %
24.08.2017 23:38 17,6 C 15,0 C 13,9 C 79 % 0 lf 1017,3 hPa 0,0 l/m 0 min 0 min 5 W/m 0,0 km/h (0 Bft) 100,00 %
24.08.2017 23:40 17,5 C 15,0 C 13,9 C 79 % 0 lf 1017,3 hPa 0,0 l/m 0 min 0 min 1 W/m 0,0 km/h (0 Bft) 100,00 %
24.08.2017 23:42 17,4 C 15,0 C 13,9 C 79 % 0 lf 1017,3 hPa 0,0 l/m 0 min 0 min 0 W/m 0,0 km/h (0 Bft) 100,00 %
24.08.2017 23:44 17,4 C 15,0 C 13,9 C 79 % 0 lf 1017,3 hPa 0,0 l/m 0 min 0 min 0 W/m 0,0 km/h (0 Bft) 100,00 %
24.08.2017 23:46 17,3 C 15,0 C 13,9 C 80 % 0 lf 1017,3 hPa 0,0 l/m 0 min 0 min 2 W/m 0,0 km/h (0 Bft) 93,62 %
24.08.2017 23:48 17,3 C 15,0 C 13,9 C 80 % 0 lf 1017,3 hPa 0,0 l/m 0 min 0 min 5 W/m 0,0 km/h (0 Bft) 95,74 %
24.08.2017 23:50 17,3 C 15,0 C 13,9 C 80 % 0 lf 1017,3 hPa 0,0 l/m 0 min 0 min 0 W/m 0,0 km/h (0 Bft) 100,00 %
24.08.2017 23:52 17,2 C 15,0 C 13,9 C 80 % 0 lf 1017,3 hPa 0,0 l/m 0 min 0 min 5 W/m 0,0 km/h (0 Bft) 97,14 %
24.08.2017 23:54 17,2 C 15,0 C 13,9 C 80 % 0 lf 1017,3 hPa 0,0 l/m 0 min 0 min 0 W/m 0,0 km/h (0 Bft) 97,87 %
24.08.2017 23:56 17,1 C 15,0 C 13,9 C 80 % 0 lf 1017,3 hPa 0,0 l/m 0 min 0 min 3 W/m 0,0 km/h (0 Bft) 95,74 %
24.08.2017 23:58 17,1 C 15,0 C 13,3 C 80 % 0 lf 1017,3 hPa 0,0 l/m 0 min 0 min 0 W/m 0,0 km/h (0 Bft) 91,49 %
_ Min-Zeit 07:10 23:36 23:58 15:48 00:00 00:00 - - - - 23:10 06:10
Minimum _ 16,1 C 15,0 C 13,3 C 57 % 0 lf 1012,5 hPa - - - - 0,0 km/h (0 Bft) 87,23 %
_ Max-Zeit 15:44 13:18 14:50 07:24 00:00 23:02 00:00 18:08 00:00 13:00 03:42 01:12
Maximum _ 24,7 C 32,8 C 31,7 C 91 % 0 lf 1017,4 hPa 0,0 l/m 4 min 0 min 936 W/m 29,3 km/h
W-SW (5 Bft)
100,00 %
Durchschnitt _ 20,2 C 21,1 C 19,7 C 77 % 0 lf 1015,3 hPa #0,0 l/m #6:14 h #0 min. 244 W/m 14,0 km/h (3 Bft) 96,52 %
© 2017 W. Hausmann